Peotone Weather
Station Historical Data
Daily Summary for January 29, 2012 Units:  English    Metric   Both
« Previous Day
Next Day »
Daily Weekly Monthly Yearly Custom
  High: Low: Average:
Temperature: 31.4 °F 19.2 °F 27.2 °F
Dew Point: 26.7 °F 14.4 °F 21.2 °F
Humidity: 92% 69% 78%
Wind Speed: 28.0mph 0.0mph 8.2mph
Wind Gust: 28.0mph - -
Wind- - West
Pressure: 30.30 in 30.00 in -
Precipitation: 0.00 in    
Historical Graphs
 
 
Tabular Data for January 29, 2012
Time Temperature Dew Point Pressure Wind Wind Speed Wind Gust Humidity Rainfall Rate (Hourly) solar Conditions
00:00 28.9 °F 22.9 °F 30.10 in West 11.0 mph 14.0 mph 78% 0.00 in 0.00 W/m2
00:01 28.9 °F 22.9 °F 30.10 in WSW 11.0 mph 17.0 mph 78% 0.00 in 0.00 W/m2
00:02 28.9 °F 22.9 °F 30.10 in SW 9.0 mph 17.0 mph 78% 0.00 in 0.00 W/m2
00:04 28.9 °F 22.9 °F 30.10 in SW 10.0 mph 16.0 mph 78% 0.00 in 0.00 W/m2
00:05 28.9 °F 22.9 °F 30.10 in West 14.0 mph 14.0 mph 78% 0.00 in 0.00 W/m2
00:06 28.9 °F 22.9 °F 30.10 in WSW 12.0 mph 14.0 mph 78% 0.00 in 0.00 W/m2
00:07 29.0 °F 23.0 °F 30.10 in WSW 16.0 mph 16.0 mph 78% 0.00 in 0.00 W/m2
00:09 28.9 °F 22.9 °F 30.10 in WSW 14.0 mph 14.0 mph 78% 0.00 in 0.00 W/m2
00:10 29.0 °F 23.0 °F 30.10 in WSW 10.0 mph 14.0 mph 78% 0.00 in 0.00 W/m2
00:11 29.0 °F 23.0 °F 30.10 in SW 12.0 mph 14.0 mph 78% 0.00 in 0.00 W/m2
00:12 28.9 °F 22.9 °F 30.10 in WSW 11.0 mph 15.0 mph 78% 0.00 in 0.00 W/m2
00:13 28.9 °F 22.9 °F 30.10 in WSW 6.0 mph 13.0 mph 78% 0.00 in 0.00 W/m2
00:15 28.9 °F 22.9 °F 30.10 in WSW 8.0 mph 16.0 mph 78% 0.00 in 0.00 W/m2
00:16 28.9 °F 22.9 °F 30.10 in WSW 10.0 mph 15.0 mph 78% 0.00 in 0.00 W/m2
00:17 28.9 °F 22.9 °F 30.10 in SW 11.0 mph 14.0 mph 78% 0.00 in 0.00 W/m2
00:18 28.9 °F 22.9 °F 30.10 in WSW 13.0 mph 16.0 mph 78% 0.00 in 0.00 W/m2
00:20 28.9 °F 22.9 °F 30.10 in SW 10.0 mph 14.0 mph 78% 0.00 in 0.00 W/m2
00:21 28.9 °F 22.9 °F 30.10 in West 13.0 mph 14.0 mph 78% 0.00 in 0.00 W/m2
00:23 28.9 °F 22.9 °F 30.10 in SW 13.0 mph 15.0 mph 78% 0.00 in 0.00 W/m2
00:24 28.9 °F 22.9 °F 30.10 in WSW 11.0 mph 14.0 mph 78% 0.00 in 0.00 W/m2
00:25 28.9 °F 22.9 °F 30.10 in SW 9.0 mph 13.0 mph 78% 0.00 in 0.00 W/m2
00:26 28.9 °F 22.9 °F 30.10 in WSW 6.0 mph 12.0 mph 78% 0.00 in 0.00 W/m2
00:27 28.9 °F 22.9 °F 30.10 in WSW 6.0 mph 13.0 mph 78% 0.00 in 0.00 W/m2
00:28 28.9 °F 22.9 °F 30.10 in WSW 8.0 mph 12.0 mph 78% 0.00 in 0.00 W/m2
00:30 28.9 °F 22.9 °F 30.10 in SW 11.0 mph 14.0 mph 78% 0.00 in 0.00 W/m2
00:31 28.8 °F 22.8 °F 30.10 in WSW 7.0 mph 14.0 mph 78% 0.00 in 0.00 W/m2
00:33 28.8 °F 22.8 °F 30.10 in WSW 10.0 mph 14.0 mph 78% 0.00 in 0.00 W/m2
00:34 28.8 °F 22.8 °F 30.10 in WSW 10.0 mph 14.0 mph 78% 0.00 in 0.00 W/m2
00:36 28.8 °F 22.8 °F 30.10 in WSW 7.0 mph 15.0 mph 78% 0.00 in 0.00 W/m2
00:37 28.8 °F 22.8 °F 30.10 in WSW 12.0 mph 13.0 mph 78% 0.00 in 0.00 W/m2
00:38 28.8 °F 22.8 °F 30.10 in SW 15.0 mph 15.0 mph 78% 0.00 in 0.00 W/m2
00:39 28.8 °F 22.8 °F 30.10 in WSW 6.0 mph 15.0 mph 78% 0.00 in 0.00 W/m2
00:41 28.8 °F 22.8 °F 30.10 in SW 9.0 mph 14.0 mph 78% 0.00 in 0.00 W/m2
00:42 28.7 °F 22.7 °F 30.10 in WSW 13.0 mph 13.0 mph 78% 0.00 in 0.00 W/m2
00:44 28.7 °F 22.7 °F 30.09 in WSW 6.0 mph 15.0 mph 78% 0.00 in 0.00 W/m2
00:45 28.7 °F 22.7 °F 30.09 in WSW 8.0 mph 15.0 mph 78% 0.00 in 0.00 W/m2
00:46 28.7 °F 22.7 °F 30.09 in WSW 11.0 mph 11.0 mph 78% 0.00 in 0.00 W/m2
00:47 28.7 °F 22.7 °F 30.09 in WSW 9.0 mph 11.0 mph 78% 0.00 in 0.00 W/m2
00:48 28.6 °F 22.6 °F 30.10 in WSW 7.0 mph 15.0 mph 78% 0.00 in 0.00 W/m2
00:49 28.6 °F 22.6 °F 30.10 in WSW 11.0 mph 13.0 mph 78% 0.00 in 0.00 W/m2
00:50 28.6 °F 22.6 °F 30.10 in WSW 9.0 mph 11.0 mph 78% 0.00 in 0.00 W/m2
00:52 28.6 °F 22.6 °F 30.10 in WSW 7.0 mph 11.0 mph 78% 0.00 in 0.00 W/m2
00:53 28.6 °F 22.6 °F 30.10 in SW 7.0 mph 14.0 mph 78% 0.00 in 0.00 W/m2
00:54 28.6 °F 22.6 °F 30.10 in WSW 10.0 mph 15.0 mph 78% 0.00 in 0.00 W/m2
00:55 28.6 °F 22.6 °F 30.10 in WSW 9.0 mph 12.0 mph 78% 0.00 in 0.00 W/m2
00:57 28.5 °F 22.5 °F 30.10 in WSW 9.0 mph 11.0 mph 78% 0.00 in 0.00 W/m2
00:58 28.5 °F 22.5 °F 30.10 in SW 8.0 mph 17.0 mph 78% 0.00 in 0.00 W/m2
00:59 28.5 °F 22.5 °F 30.10 in WSW 10.0 mph 17.0 mph 78% 0.00 in 0.00 W/m2
01:00 28.5 °F 22.8 °F 30.10 in WSW 7.0 mph 13.0 mph 79% 0.00 in 0.00 W/m2
01:02 28.5 °F 22.8 °F 30.10 in WSW 8.0 mph 13.0 mph 79% 0.00 in 0.00 W/m2
01:04 28.5 °F 22.8 °F 30.10 in WSW 10.0 mph 11.0 mph 79% 0.00 in 0.00 W/m2
01:06 28.5 °F 22.8 °F 30.10 in WSW 8.0 mph 11.0 mph 79% 0.00 in 0.00 W/m2
01:08 28.4 °F 22.7 °F 30.10 in WSW 11.0 mph 14.0 mph 79% 0.00 in 0.00 W/m2
01:09 28.4 °F 22.7 °F 30.10 in WSW 9.0 mph 14.0 mph 79% 0.00 in 0.00 W/m2
01:11 28.4 °F 22.7 °F 30.10 in WSW 7.0 mph 14.0 mph 79% 0.00 in 0.00 W/m2
01:14 28.3 °F 22.3 °F 30.10 in WSW 9.0 mph 12.0 mph 78% 0.00 in 0.00 W/m2
01:15 28.3 °F 22.3 °F 30.10 in WSW 6.0 mph 12.0 mph 78% 0.00 in 0.00 W/m2
01:16 28.3 °F 22.3 °F 30.10 in WSW 5.0 mph 11.0 mph 78% 0.00 in 0.00 W/m2
01:19 28.3 °F 22.6 °F 30.10 in WSW 7.0 mph 12.0 mph 79% 0.00 in 0.00 W/m2
01:20 28.3 °F 22.3 °F 30.10 in WSW 8.0 mph 9.0 mph 78% 0.00 in 0.00 W/m2
01:21 28.3 °F 22.3 °F 30.10 in SW 7.0 mph 12.0 mph 78% 0.00 in 0.00 W/m2
01:24 28.3 °F 22.3 °F 30.10 in West 11.0 mph 12.0 mph 78% 0.00 in 0.00 W/m2
01:26 28.2 °F 22.5 °F 30.10 in SW 11.0 mph 12.0 mph 79% 0.00 in 0.00 W/m2
01:27 28.2 °F 22.5 °F 30.10 in SW 10.0 mph 12.0 mph 79% 0.00 in 0.00 W/m2
01:28 28.2 °F 22.5 °F 30.10 in WSW 10.0 mph 13.0 mph 79% 0.00 in 0.00 W/m2
01:30 28.2 °F 22.5 °F 30.10 in SW 10.0 mph 11.0 mph 79% 0.00 in 0.00 W/m2
01:32 28.1 °F 22.4 °F 30.10 in WSW 6.0 mph 11.0 mph 79% 0.00 in 0.00 W/m2
01:35 28.1 °F 22.4 °F 30.10 in SW 9.0 mph 12.0 mph 79% 0.00 in 0.00 W/m2
01:37 28.0 °F 22.3 °F 30.10 in WSW 9.0 mph 11.0 mph 79% 0.00 in 0.00 W/m2
01:38 28.0 °F 22.3 °F 30.10 in SW 6.0 mph 11.0 mph 79% 0.00 in 0.00 W/m2
01:40 28.0 °F 22.3 °F 30.10 in WSW 12.0 mph 12.0 mph 79% 0.00 in 0.00 W/m2
01:43 28.0 °F 22.3 °F 30.10 in WSW 9.0 mph 12.0 mph 79% 0.00 in 0.00 W/m2
01:44 27.9 °F 22.2 °F 30.10 in West 10.0 mph 11.0 mph 79% 0.00 in 0.00 W/m2
01:45 27.9 °F 22.2 °F 30.10 in WSW 5.0 mph 11.0 mph 79% 0.00 in 0.00 W/m2
01:48 27.9 °F 22.2 °F 30.10 in WSW 10.0 mph 13.0 mph 79% 0.00 in 0.00 W/m2
01:50 27.9 °F 22.2 °F 30.10 in SW 10.0 mph 12.0 mph 79% 0.00 in 0.00 W/m2
01:51 27.9 °F 22.2 °F 30.10 in SW 5.0 mph 12.0 mph 79% 0.00 in 0.00 W/m2
01:53 27.8 °F 22.1 °F 30.09 in WSW 5.0 mph 9.0 mph 79% 0.00 in 0.00 W/m2
01:54 27.8 °F 22.1 °F 30.09 in SW 8.0 mph 9.0 mph 79% 0.00 in 0.00 W/m2
01:55 27.8 °F 22.1 °F 30.09 in WSW 9.0 mph 10.0 mph 79% 0.00 in 0.00 W/m2
01:56 27.8 °F 22.1 °F 30.09 in WSW 6.0 mph 10.0 mph 79% 0.00 in 0.00 W/m2
01:59 27.7 °F 22.0 °F 30.09 in WSW 6.0 mph 8.0 mph 79% 0.00 in 0.00 W/m2
02:00 27.7 °F 22.0 °F 30.09 in WSW 6.0 mph 11.0 mph 79% 0.00 in 0.00 W/m2
02:01 27.7 °F 22.0 °F 30.09 in WSW 9.0 mph 11.0 mph 79% 0.00 in 0.00 W/m2
02:04 27.6 °F 22.0 °F 30.09 in SW 6.0 mph 9.0 mph 79% 0.00 in 0.00 W/m2
02:05 27.6 °F 22.0 °F 30.09 in SW 4.0 mph 6.0 mph 79% 0.00 in 0.00 W/m2
02:06 27.6 °F 22.0 °F 30.09 in WSW 2.0 mph 6.0 mph 79% 0.00 in 0.00 W/m2
02:07 27.5 °F 21.9 °F 30.09 in WSW 4.0 mph 10.0 mph 79% 0.00 in 0.00 W/m2
02:09 27.5 °F 21.9 °F 30.09 in WSW 6.0 mph 9.0 mph 79% 0.00 in 0.00 W/m2
02:11 27.4 °F 21.8 °F 30.09 in WSW 3.0 mph 7.0 mph 79% 0.00 in 0.00 W/m2
02:12 27.4 °F 21.8 °F 30.09 in WSW 5.0 mph 5.0 mph 79% 0.00 in 0.00 W/m2
02:15 27.3 °F 21.7 °F 30.09 in SW 3.0 mph 6.0 mph 79% 0.00 in 0.00 W/m2
02:16 27.2 °F 21.6 °F 30.09 in SW 7.0 mph 9.0 mph 79% 0.00 in 0.00 W/m2
02:18 27.1 °F 21.5 °F 30.09 in SW 7.0 mph 9.0 mph 79% 0.00 in 0.00 W/m2
02:20 27.0 °F 21.4 °F 30.09 in SW 3.0 mph 6.0 mph 79% 0.00 in 0.00 W/m2
02:21 27.0 °F 21.4 °F 30.09 in SW 6.0 mph 6.0 mph 79% 0.00 in 0.00 W/m2
02:23 26.9 °F 21.3 °F 30.09 in SW 4.0 mph 6.0 mph 79% 0.00 in 0.00 W/m2
02:27 26.7 °F 21.1 °F 30.08 in SW 3.0 mph 7.0 mph 79% 0.00 in 0.00 W/m2
02:28 26.7 °F 21.4 °F 30.08 in WSW 4.0 mph 7.0 mph 80% 0.00 in 0.00 W/m2
02:32 26.5 °F 21.2 °F 30.08 in SW 6.0 mph 6.0 mph 80% 0.00 in 0.00 W/m2
02:33 26.5 °F 21.2 °F 30.08 in SW 4.0 mph 6.0 mph 80% 0.00 in 0.00 W/m2
02:37 26.4 °F 21.1 °F 30.08 in SW 9.0 mph 9.0 mph 80% 0.00 in 0.00 W/m2
02:38 26.4 °F 21.1 °F 30.08 in WSW 2.0 mph 9.0 mph 80% 0.00 in 0.00 W/m2
02:39 26.3 °F 21.0 °F 30.08 in SW 7.0 mph 10.0 mph 80% 0.00 in 0.00 W/m2
02:42 26.2 °F 20.9 °F 30.08 in SW 4.0 mph 7.0 mph 80% 0.00 in 0.00 W/m2
02:43 26.2 °F 20.9 °F 30.08 in SW 6.0 mph 9.0 mph 80% 0.00 in 0.00 W/m2
02:45 26.1 °F 20.8 °F 30.08 in SW 6.0 mph 9.0 mph 80% 0.00 in 0.00 W/m2
02:47 26.1 °F 20.8 °F 30.08 in SW 2.0 mph 5.0 mph 80% 0.00 in 0.00 W/m2
02:48 26.0 °F 20.7 °F 30.08 in SW 5.0 mph 7.0 mph 80% 0.00 in 0.00 W/m2
02:49 26.0 °F 20.7 °F 30.08 in SW 7.0 mph 7.0 mph 80% 0.00 in 0.00 W/m2
02:50 26.0 °F 20.7 °F 30.08 in SW 4.0 mph 7.0 mph 80% 0.00 in 0.00 W/m2
02:52 25.9 °F 20.6 °F 30.07 in SW 4.0 mph 7.0 mph 80% 0.00 in 0.00 W/m2
02:53 25.9 °F 20.6 °F 30.07 in WSW 3.0 mph 7.0 mph 80% 0.00 in 0.00 W/m2
02:54 25.9 °F 20.6 °F 30.07 in WSW 3.0 mph 7.0 mph 80% 0.00 in 0.00 W/m2
02:55 25.9 °F 20.6 °F 30.07 in SW 3.0 mph 5.0 mph 80% 0.00 in 0.00 W/m2
02:57 25.8 °F 20.8 °F 30.07 in SW 3.0 mph 6.0 mph 81% 0.00 in 0.00 W/m2
02:58 25.8 °F 20.8 °F 30.07 in SW 4.0 mph 6.0 mph 81% 0.00 in 0.00 W/m2
02:59 25.8 °F 20.8 °F 30.07 in SW 4.0 mph 5.0 mph 81% 0.00 in 0.00 W/m2
03:00 25.8 °F 20.8 °F 30.07 in SW 1.0 mph 4.0 mph 81% 0.00 in 0.00 W/m2
03:03 25.8 °F 20.8 °F 30.07 in Calm   2.0 mph 81% 0.00 in 0.00 W/m2
03:04 25.8 °F 20.8 °F 30.07 in Calm   1.0 mph 81% 0.00 in 0.00 W/m2
03:06 25.7 °F 20.7 °F 30.07 in Calm   1.0 mph 81% 0.00 in 0.00 W/m2
03:08 25.7 °F 20.7 °F 30.07 in SW 3.0 mph 3.0 mph 81% 0.00 in 0.00 W/m2
03:09 25.6 °F 20.6 °F 30.07 in SW 1.0 mph 3.0 mph 81% 0.00 in 0.00 W/m2
03:12 25.6 °F 20.6 °F 30.07 in SW 3.0 mph 5.0 mph 81% 0.00 in 0.00 W/m2
03:13 25.6 °F 20.6 °F 30.07 in SW 1.0 mph 5.0 mph 81% 0.00 in 0.00 W/m2
03:14 25.6 °F 20.6 °F 30.07 in Calm   3.0 mph 81% 0.00 in 0.00 W/m2
03:15 25.5 °F 20.5 °F 30.07 in SW 1.0 mph 5.0 mph 81% 0.00 in 0.00 W/m2
03:18 25.4 °F 20.4 °F 30.06 in SW 2.0 mph 5.0 mph 81% 0.00 in 0.00 W/m2
03:19 25.4 °F 20.4 °F 30.06 in SW 2.0 mph 5.0 mph 81% 0.00 in 0.00 W/m2
03:20 25.4 °F 20.4 °F 30.06 in SW 3.0 mph 4.0 mph 81% 0.00 in 0.00 W/m2
03:24 25.3 °F 20.3 °F 30.06 in SSW 3.0 mph 7.0 mph 81% 0.00 in 0.00 W/m2
03:25 25.3 °F 20.3 °F 30.06 in SSW 3.0 mph 7.0 mph 81% 0.00 in 0.00 W/m2
03:26 25.2 °F 20.2 °F 30.06 in SSW 5.0 mph 7.0 mph 81% 0.00 in 0.00 W/m2
03:29 25.1 °F 20.1 °F 30.06 in SSW 5.0 mph 6.0 mph 81% 0.00 in 0.00 W/m2
03:30 25.2 °F 20.2 °F 30.06 in SSW 3.0 mph 6.0 mph 81% 0.00 in 0.00 W/m2
03:31 25.1 °F 20.1 °F 30.06 in SSW 5.0 mph 7.0 mph 81% 0.00 in 0.00 W/m2
03:34 25.1 °F 20.4 °F 30.05 in SSW 6.0 mph 9.0 mph 82% 0.00 in 0.00 W/m2
03:35 25.1 °F 20.4 °F 30.05 in SW 4.0 mph 7.0 mph 82% 0.00 in 0.00 W/m2
03:37 25.1 °F 20.4 °F 30.05 in SSW 4.0 mph 7.0 mph 82% 0.00 in 0.00 W/m2
03:41 25.1 °F 20.4 °F 30.05 in SSW 5.0 mph 11.0 mph 82% 0.00 in 0.00 W/m2
03:42 25.1 °F 20.4 °F 30.05 in South 5.0 mph 10.0 mph 82% 0.00 in 0.00 W/m2
03:43 25.1 °F 20.4 °F 30.05 in SSW 5.0 mph 10.0 mph 82% 0.00 in 0.00 W/m2
03:47 25.2 °F 20.5 °F 30.05 in SW 6.0 mph 12.0 mph 82% 0.00 in 0.00 W/m2
03:48 25.2 °F 20.5 °F 30.05 in SSW 8.0 mph 12.0 mph 82% 0.00 in 0.00 W/m2
03:53 25.3 °F 20.6 °F 30.05 in SSW 4.0 mph 9.0 mph 82% 0.00 in 0.00 W/m2
03:54 25.3 °F 20.6 °F 30.05 in SSW 3.0 mph 6.0 mph 82% 0.00 in 0.00 W/m2
03:58 25.3 °F 20.6 °F 30.05 in SSW 10.0 mph 10.0 mph 82% 0.00 in 0.00 W/m2
03:59 25.4 °F 20.7 °F 30.04 in SSW 5.0 mph 10.0 mph 82% 0.00 in 0.00 W/m2
04:03 25.5 °F 20.8 °F 30.05 in SSW 10.0 mph 12.0 mph 82% 0.00 in 0.00 W/m2
04:04 25.5 °F 20.8 °F 30.04 in SSW 6.0 mph 12.0 mph 82% 0.00 in 0.00 W/m2
04:08 25.7 °F 21.0 °F 30.04 in SSW 6.0 mph 9.0 mph 82% 0.00 in 0.00 W/m2
04:09 25.7 °F 21.0 °F 30.04 in SW 5.0 mph 9.0 mph 82% 0.00 in 0.00 W/m2
04:14 25.8 °F 21.1 °F 30.04 in SW 3.0 mph 9.0 mph 82% 0.00 in 0.00 W/m2
04:15 25.8 °F 21.1 °F 30.03 in SW 10.0 mph 10.0 mph 82% 0.00 in 0.00 W/m2
04:19 25.9 °F 21.2 °F 30.04 in SSW 6.0 mph 9.0 mph 82% 0.00 in 0.00 W/m2
04:20 26.0 °F 21.3 °F 30.03 in SW 3.0 mph 9.0 mph 82% 0.00 in 0.00 W/m2
04:22 26.0 °F 21.3 °F 30.03 in SSW 4.0 mph 9.0 mph 82% 0.00 in 0.00 W/m2
04:24 26.1 °F 21.4 °F 30.03 in SSW 4.0 mph 6.0 mph 82% 0.00 in 0.00 W/m2
04:25 26.1 °F 21.4 °F 30.03 in SW 7.0 mph 9.0 mph 82% 0.00 in 0.00 W/m2
04:26 26.2 °F 21.5 °F 30.03 in SW 4.0 mph 9.0 mph 82% 0.00 in 0.00 W/m2
04:27 26.2 °F 21.5 °F 30.03 in SSW 4.0 mph 8.0 mph 82% 0.00 in 0.00 W/m2
04:29 26.2 °F 21.5 °F 30.03 in SW 9.0 mph 9.0 mph 82% 0.00 in 0.00 W/m2
04:31 26.3 °F 21.6 °F 30.03 in SW 10.0 mph 10.0 mph 82% 0.00 in 0.00 W/m2
04:33 26.3 °F 21.6 °F 30.03 in SSW 6.0 mph 11.0 mph 82% 0.00 in 0.00 W/m2
04:34 26.4 °F 21.7 °F 30.03 in SSW 11.0 mph 11.0 mph 82% 0.00 in 0.00 W/m2
04:36 26.5 °F 21.8 °F 30.03 in SW 6.0 mph 11.0 mph 82% 0.00 in 0.00 W/m2
04:38 26.6 °F 21.9 °F 30.02 in SSW 5.0 mph 10.0 mph 82% 0.00 in 0.00 W/m2
04:39 26.6 °F 21.9 °F 30.02 in SSW 7.0 mph 10.0 mph 82% 0.00 in 0.00 W/m2
04:41 26.7 °F 22.0 °F 30.02 in SW 9.0 mph 11.0 mph 82% 0.00 in 0.00 W/m2
04:42 26.7 °F 22.0 °F 30.02 in SW 6.0 mph 11.0 mph 82% 0.00 in 0.00 W/m2
04:44 26.8 °F 22.0 °F 30.02 in SW 4.0 mph 11.0 mph 82% 0.00 in 0.00 W/m2
04:47 26.9 °F 22.1 °F 30.02 in SSW 5.0 mph 8.0 mph 82% 0.00 in 0.00 W/m2
04:49 26.9 °F 22.1 °F 30.02 in SSW 5.0 mph 6.0 mph 82% 0.00 in 0.00 W/m2
04:52 27.0 °F 22.2 °F 30.02 in SSW 5.0 mph 7.0 mph 82% 0.00 in 0.00 W/m2
04:53 27.1 °F 22.4 °F 30.02 in SW 3.0 mph 11.0 mph 82% 0.00 in 0.00 W/m2
04:54 27.1 °F 22.4 °F 30.02 in SSW 3.0 mph 11.0 mph 82% 0.00 in 0.00 W/m2
04:57 27.2 °F 22.4 °F 30.01 in SSW 5.0 mph 10.0 mph 82% 0.00 in 0.00 W/m2
04:58 27.2 °F 22.4 °F 30.01 in SSW 6.0 mph 8.0 mph 82% 0.00 in 0.00 W/m2
04:59 27.2 °F 22.4 °F 30.01 in SW 7.0 mph 8.0 mph 82% 0.00 in 0.00 W/m2
05:00 27.2 °F 22.4 °F 30.01 in SW 4.0 mph 11.0 mph 82% 0.00 in 0.00 W/m2
05:03 27.3 °F 22.5 °F 30.01 in SSW 10.0 mph 10.0 mph 82% 0.00 in 0.00 W/m2
05:04 27.4 °F 22.6 °F 30.01 in SW 4.0 mph 10.0 mph 82% 0.00 in 0.00 W/m2
05:05 27.4 °F 22.6 °F 30.01 in SSW 12.0 mph 15.0 mph 82% 0.00 in 0.00 W/m2
05:08 27.5 °F 22.7 °F 30.01 in SW 7.0 mph 11.0 mph 82% 0.00 in 0.00 W/m2
05:09 27.6 °F 22.5 °F 30.01 in SW 4.0 mph 10.0 mph 81% 0.00 in 0.00 W/m2
05:10 27.6 °F 22.5 °F 30.01 in SW 6.0 mph 10.0 mph 81% 0.00 in 0.00 W/m2
05:14 27.8 °F 23.0 °F 30.03 in West 4.0 mph 13.0 mph 82% 0.00 in 0.00 W/m2
05:15 27.9 °F 22.8 °F 30.03 in West 7.0 mph 12.0 mph 81% 0.00 in 0.00 W/m2
05:16 27.9 °F 22.8 °F 30.03 in WSW 13.0 mph 16.0 mph 81% 0.00 in 0.00 W/m2
05:19 28.2 °F 23.1 °F 30.03 in West 11.0 mph 13.0 mph 81% 0.00 in 0.00 W/m2
05:20 28.2 °F 23.1 °F 30.03 in WSW 6.0 mph 11.0 mph 81% 0.00 in 0.00 W/m2
05:21 28.3 °F 23.2 °F 30.03 in WSW 12.0 mph 12.0 mph 81% 0.00 in 0.00 W/m2
05:22 28.3 °F 23.2 °F 30.03 in WSW 9.0 mph 13.0 mph 81% 0.00 in 0.00 W/m2
05:25 28.4 °F 23.3 °F 30.03 in WSW 13.0 mph 15.0 mph 81% 0.00 in 0.00 W/m2
05:26 28.5 °F 23.4 °F 30.03 in West 10.0 mph 15.0 mph 81% 0.00 in 0.00 W/m2
05:29 28.6 °F 23.2 °F 30.03 in West 8.0 mph 14.0 mph 80% 0.00 in 0.00 W/m2
05:30 28.6 °F 23.2 °F 30.03 in WSW 14.0 mph 16.0 mph 80% 0.00 in 0.00 W/m2
05:31 28.7 °F 23.3 °F 30.03 in WSW 12.0 mph 16.0 mph 80% 0.00 in 0.00 W/m2
05:32 28.7 °F 23.3 °F 30.03 in WSW 14.0 mph 16.0 mph 80% 0.00 in 0.00 W/m2
05:35 28.8 °F 23.4 °F 30.03 in WSW 8.0 mph 12.0 mph 80% 0.00 in 0.00 W/m2
05:36 28.8 °F 23.4 °F 30.03 in West 9.0 mph 13.0 mph 80% 0.00 in 0.00 W/m2
05:37 28.9 °F 23.5 °F 30.03 in SW 10.0 mph 13.0 mph 80% 0.00 in 0.00 W/m2
05:38 28.9 °F 23.5 °F 30.03 in WSW 12.0 mph 13.0 mph 80% 0.00 in 0.00 W/m2
05:41 29.0 °F 23.3 °F 30.03 in WSW 10.0 mph 17.0 mph 79% 0.00 in 0.00 W/m2
05:43 29.0 °F 23.3 °F 30.03 in SW 13.0 mph 13.0 mph 79% 0.00 in 0.00 W/m2
05:46 29.0 °F 23.3 °F 30.03 in WSW 9.0 mph 13.0 mph 79% 0.00 in 0.00 W/m2
05:47 29.0 °F 23.3 °F 30.03 in WSW 8.0 mph 12.0 mph 79% 0.00 in 0.00 W/m2
05:48 29.0 °F 23.3 °F 30.02 in WSW 7.0 mph 10.0 mph 79% 0.00 in 0.00 W/m2
05:49 29.0 °F 23.3 °F 30.02 in SW 11.0 mph 11.0 mph 79% 0.00 in 0.00 W/m2
05:51 29.0 °F 23.3 °F 30.02 in West 5.0 mph 10.0 mph 79% 0.00 in 0.00 W/m2
05:52 29.0 °F 23.3 °F 30.02 in WSW 6.0 mph 9.0 mph 79% 0.00 in 0.00 W/m2
05:54 29.0 °F 23.3 °F 30.02 in WSW 9.0 mph 10.0 mph 79% 0.00 in 0.00 W/m2
05:56 29.1 °F 23.4 °F 30.03 in WSW 10.0 mph 12.0 mph 79% 0.00 in 0.00 W/m2
05:57 29.1 °F 23.4 °F 30.02 in WSW 10.0 mph 13.0 mph 79% 0.00 in 0.00 W/m2
05:59 29.1 °F 23.4 °F 30.03 in WSW 14.0 mph 14.0 mph 79% 0.00 in 0.00 W/m2
06:00 29.1 °F 23.4 °F 30.03 in WSW 11.0 mph 14.0 mph 79% 0.00 in 0.00 W/m2
06:01 29.1 °F 23.4 °F 30.03 in WSW 14.0 mph 17.0 mph 79% 0.00 in 0.00 W/m2
06:02 29.2 °F 23.5 °F 30.03 in West 11.0 mph 18.0 mph 79% 0.00 in 0.00 W/m2
06:04 29.3 °F 23.6 °F 30.03 in WSW 6.0 mph 15.0 mph 79% 0.00 in 0.00 W/m2
06:05 29.3 °F 23.6 °F 30.03 in WSW 13.0 mph 13.0 mph 79% 0.00 in 0.00 W/m2
06:06 29.4 °F 23.7 °F 30.02 in WSW 5.0 mph 13.0 mph 79% 0.00 in 0.00 W/m2
06:08 29.5 °F 23.8 °F 30.02 in WSW 6.0 mph 11.0 mph 79% 0.00 in 0.00 W/m2
06:10 29.5 °F 23.8 °F 30.02 in WSW 7.0 mph 11.0 mph 79% 0.00 in 0.00 W/m2
06:11 29.5 °F 23.8 °F 30.02 in WSW 5.0 mph 13.0 mph 79% 0.00 in 0.00 W/m2
06:13 29.6 °F 23.9 °F 30.01 in SW 10.0 mph 10.0 mph 79% 0.00 in 0.00 W/m2
06:15 29.6 °F 23.9 °F 30.01 in WSW 7.0 mph 10.0 mph 79% 0.00 in 0.00 W/m2
06:16 29.7 °F 24.0 °F 30.01 in SW 6.0 mph 10.0 mph 79% 0.00 in 0.00 W/m2
06:18 29.7 °F 23.7 °F 30.01 in SW 5.0 mph 7.0 mph 78% 0.00 in 0.00 W/m2
06:21 29.7 °F 23.7 °F 30.01 in SSW 3.0 mph 11.0 mph 78% 0.00 in 0.00 W/m2
06:22 29.8 °F 24.1 °F 30.00 in SSW 11.0 mph 14.0 mph 79% 0.00 in 0.00 W/m2
06:23 29.8 °F 24.1 °F 30.00 in WSW 10.0 mph 15.0 mph 79% 0.00 in 0.00 W/m2
06:26 29.8 °F 24.1 °F 30.00 in SW 6.0 mph 12.0 mph 79% 0.00 in 0.00 W/m2
06:27 29.8 °F 24.1 °F 30.00 in SW 7.0 mph 12.0 mph 79% 0.00 in 0.00 W/m2
06:28 29.9 °F 24.2 °F 30.00 in SW 7.0 mph 12.0 mph 79% 0.00 in 0.00 W/m2
06:29 29.9 °F 23.9 °F 30.00 in WSW 9.0 mph 14.0 mph 78% 0.00 in 0.00 W/m2
06:31 29.9 °F 23.9 °F 30.00 in WSW 6.0 mph 14.0 mph 78% 0.00 in 0.00 W/m2
06:32 29.9 °F 23.9 °F 30.00 in WSW 6.0 mph 14.0 mph 78% 0.00 in 0.00 W/m2
06:34 29.9 °F 23.9 °F 30.00 in WSW 9.0 mph 12.0 mph 78% 0.00 in 0.00 W/m2
06:36 29.9 °F 23.9 °F 30.01 in SW 16.0 mph 18.0 mph 78% 0.00 in 0.00 W/m2
06:37 29.9 °F 23.9 °F 30.01 in WSW 10.0 mph 18.0 mph 78% 0.00 in 0.00 W/m2
06:38 29.9 °F 24.2 °F 30.01 in SW 11.0 mph 16.0 mph 79% 0.00 in 0.00 W/m2
06:39 29.9 °F 23.9 °F 30.01 in SW 14.0 mph 14.0 mph 78% 0.00 in 0.00 W/m2
06:41 29.9 °F 23.9 °F 30.01 in SW 10.0 mph 14.0 mph 78% 0.00 in 0.00 W/m2
06:44 30.0 °F 24.0 °F 30.01 in SW 15.0 mph 17.0 mph 78% 0.00 in 0.00 W/m2
06:45 29.9 °F 23.9 °F 30.00 in SW 10.0 mph 17.0 mph 78% 0.00 in 0.00 W/m2
06:47 30.0 °F 24.0 °F 30.01 in SW 16.0 mph 17.0 mph 78% 0.00 in 0.00 W/m2
06:49 30.0 °F 24.0 °F 30.01 in SW 16.0 mph 17.0 mph 78% 0.00 in 0.00 W/m2
06:50 30.0 °F 24.0 °F 30.01 in WSW 14.0 mph 21.0 mph 78% 0.00 in 0.00 W/m2
06:51 30.0 °F 24.0 °F 30.01 in SW 10.0 mph 16.0 mph 78% 0.00 in 0.00 W/m2
06:52 30.0 °F 24.0 °F 30.02 in WSW 13.0 mph 20.0 mph 78% 0.00 in 0.00 W/m2
06:55 30.1 °F 24.1 °F 30.02 in WSW 12.0 mph 16.0 mph 78% 0.00 in 0.00 W/m2
06:56 30.1 °F 24.1 °F 30.02 in WSW 11.0 mph 20.0 mph 78% 0.00 in 0.00 W/m2
06:57 30.1 °F 24.1 °F 30.02 in SW 11.0 mph 20.0 mph 78% 0.00 in 0.00 W/m2
07:00 30.1 °F 24.1 °F 30.02 in WSW 9.0 mph 15.0 mph 78% 0.00 in 0.00 W/m2
07:01 30.1 °F 24.1 °F 30.02 in SW 11.0 mph 17.0 mph 78% 0.00 in 0.00 W/m2
07:02 30.1 °F 24.1 °F 30.02 in SW 13.0 mph 17.0 mph 78% 0.00 in 0.00 W/m2
07:03 30.1 °F 24.1 °F 30.02 in WSW 14.0 mph 17.0 mph 78% 0.00 in 0.00 W/m2
07:05 30.2 °F 24.2 °F 30.02 in West 16.0 mph 25.0 mph 78% 0.00 in 0.00 W/m2
07:06 30.3 °F 24.3 °F 30.03 in WSW 15.0 mph 25.0 mph 78% 0.00 in 0.00 W/m2
07:07 30.3 °F 24.3 °F 30.03 in WSW 16.0 mph 18.0 mph 78% 0.00 in 0.00 W/m2
07:08 30.3 °F 24.3 °F 30.02 in West 12.0 mph 27.0 mph 78% 0.00 in 0.00 W/m2
07:10 30.6 °F 24.6 °F 30.03 in WSW 11.0 mph 17.0 mph 78% 0.00 in 0.00 W/m2
07:12 30.7 °F 24.7 °F 30.02 in WNW 16.0 mph 24.0 mph 78% 0.00 in 0.00 W/m2
07:13 30.7 °F 24.7 °F 30.03 in West 17.0 mph 24.0 mph 78% 0.00 in 0.00 W/m2
07:15 30.8 °F 24.8 °F 30.03 in SW 16.0 mph 23.0 mph 78% 0.00 in 0.00 W/m2
07:17 30.8 °F 25.1 °F 30.03 in West 19.0 mph 19.0 mph 79% 0.00 in 0.00 W/m2
07:18 30.8 °F 25.1 °F 30.03 in West 15.0 mph 24.0 mph 79% 0.00 in 0.00 W/m2
07:21 30.7 °F 25.0 °F 30.02 in West 11.0 mph 21.0 mph 79% 0.00 in 5.00 W/m2
07:23 30.6 °F 25.2 °F 30.02 in West 14.0 mph 20.0 mph 80% 0.00 in 7.00 W/m2
07:24 30.6 °F 25.2 °F 30.02 in West 16.0 mph 20.0 mph 80% 0.00 in 7.00 W/m2
07:25 30.5 °F 25.1 °F 30.02 in WSW 14.0 mph 21.0 mph 80% 0.00 in 11.00 W/m2
07:26 30.5 °F 25.1 °F 30.02 in SW 17.0 mph 21.0 mph 80% 0.00 in 11.00 W/m2
07:28 30.4 °F 25.0 °F 30.02 in SW 17.0 mph 19.0 mph 80% 0.00 in 14.00 W/m2
07:29 30.4 °F 25.0 °F 30.02 in WSW 9.0 mph 19.0 mph 80% 0.00 in 16.00 W/m2
07:31 30.3 °F 25.2 °F 30.02 in SW 16.0 mph 20.0 mph 81% 0.00 in 18.00 W/m2
07:34 30.2 °F 25.4 °F 30.03 in WSW 12.0 mph 20.0 mph 82% 0.00 in 18.00 W/m2
07:35 30.1 °F 25.3 °F 30.02 in West 16.0 mph 23.0 mph 82% 0.00 in 19.00 W/m2
07:36 30.1 °F 25.3 °F 30.02 in WSW 19.0 mph 19.0 mph 82% 0.00 in 23.00 W/m2
07:39 30.1 °F 25.3 °F 30.02 in West 11.0 mph 19.0 mph 82% 0.00 in 23.00 W/m2
07:40 30.1 °F 25.3 °F 30.02 in West 15.0 mph 20.0 mph 82% 0.00 in 25.00 W/m2
07:41 30.1 °F 25.3 °F 30.02 in West 12.0 mph 20.0 mph 82% 0.00 in 25.00 W/m2
07:43 30.0 °F 25.5 °F 30.03 in SW 11.0 mph 16.0 mph 83% 0.00 in 26.00 W/m2
07:45 30.0 °F 25.5 °F 30.03 in West 11.0 mph 20.0 mph 83% 0.00 in 28.00 W/m2
07:46 30.0 °F 25.5 °F 30.03 in West 14.0 mph 17.0 mph 83% 0.00 in 30.00 W/m2
07:49 30.0 °F 25.5 °F 30.03 in West 13.0 mph 16.0 mph 83% 0.00 in 33.00 W/m2
07:50 30.0 °F 25.5 °F 30.03 in WSW 11.0 mph 16.0 mph 83% 0.00 in 33.00 W/m2
07:51 30.0 °F 25.8 °F 30.03 in West 14.0 mph 17.0 mph 84% 0.00 in 33.00 W/m2
07:54 30.0 °F 25.8 °F 30.03 in WSW 10.0 mph 23.0 mph 84% 0.00 in 30.00 W/m2
07:55 30.0 °F 25.8 °F 30.03 in West 14.0 mph 23.0 mph 84% 0.00 in 30.00 W/m2
07:56 30.0 °F 25.8 °F 30.03 in West 15.0 mph 22.0 mph 84% 0.00 in 30.00 W/m2
07:59 30.0 °F 25.8 °F 30.03 in West 17.0 mph 17.0 mph 84% 0.00 in 33.00 W/m2
08:00 30.0 °F 25.8 °F 30.03 in West 18.0 mph 18.0 mph 84% 0.00 in 33.00 W/m2
08:02 30.0 °F 25.8 °F 30.03 in SW 17.0 mph 19.0 mph 84% 0.00 in 42.00 W/m2
08:04 30.0 °F 26.0 °F 30.03 in WSW 9.0 mph 15.0 mph 85% 0.00 in 37.00 W/m2
08:05 30.0 °F 26.0 °F 30.03 in WSW 23.0 mph 23.0 mph 85% 0.00 in 37.00 W/m2
08:07 30.0 °F 26.0 °F 30.03 in WSW 20.0 mph 20.0 mph 85% 0.00 in 33.00 W/m2
08:08 30.0 °F 26.0 °F 30.03 in WSW 12.0 mph 20.0 mph 85% 0.00 in 28.00 W/m2
08:10 30.0 °F 26.0 °F 30.03 in West 10.0 mph 20.0 mph 85% 0.00 in 23.00 W/m2
08:11 30.0 °F 26.0 °F 30.03 in West 12.0 mph 20.0 mph 85% 0.00 in 25.00 W/m2
08:12 30.0 °F 26.0 °F 30.04 in West 16.0 mph 19.0 mph 85% 0.00 in 23.00 W/m2
08:13 30.0 °F 26.0 °F 30.04 in West 9.0 mph 16.0 mph 85% 0.00 in 28.00 W/m2
08:15 30.0 °F 26.0 °F 30.04 in West 14.0 mph 23.0 mph 85% 0.00 in 39.00 W/m2
08:16 30.0 °F 26.0 °F 30.04 in WSW 10.0 mph 23.0 mph 85% 0.00 in 49.00 W/m2
08:17 30.1 °F 26.1 °F 30.04 in West 14.0 mph 20.0 mph 85% 0.00 in 47.00 W/m2
08:18 30.1 °F 26.1 °F 30.04 in West 11.0 mph 20.0 mph 85% 0.00 in 49.00 W/m2
08:20 30.1 °F 26.1 °F 30.04 in WSW 15.0 mph 20.0 mph 85% 0.00 in 51.00 W/m2
08:21 30.2 °F 26.2 °F 30.03 in WSW 14.0 mph 17.0 mph 85% 0.00 in 83.00 W/m2
08:23 30.2 °F 26.2 °F 30.04 in West 10.0 mph 15.0 mph 85% 0.00 in 93.00 W/m2
08:24 30.3 °F 26.3 °F 30.04 in WSW 13.0 mph 18.0 mph 85% 0.00 in 84.00 W/m2
08:25 30.3 °F 26.3 °F 30.04 in West 9.0 mph 16.0 mph 85% 0.00 in 54.00 W/m2
08:27 30.3 °F 26.3 °F 30.04 in WSW 13.0 mph 20.0 mph 85% 0.00 in 49.00 W/m2
08:28 30.4 °F 26.4 °F 30.04 in West 10.0 mph 16.0 mph 85% 0.00 in 37.00 W/m2
08:29 30.4 °F 26.4 °F 30.04 in WSW 18.0 mph 20.0 mph 85% 0.00 in 35.00 W/m2
08:30 30.5 °F 26.5 °F 30.04 in West 13.0 mph 23.0 mph 85% 0.00 in 33.00 W/m2
08:32 30.5 °F 26.5 °F 30.04 in West 10.0 mph 21.0 mph 85% 0.00 in 42.00 W/m2
08:33 30.5 °F 26.5 °F 30.04 in WSW 9.0 mph 21.0 mph 85% 0.00 in 47.00 W/m2
08:34 30.5 °F 26.5 °F 30.04 in West 14.0 mph 22.0 mph 85% 0.00 in 60.00 W/m2
08:35 30.5 °F 26.5 °F 30.04 in WSW 19.0 mph 22.0 mph 85% 0.00 in 63.00 W/m2
08:37 30.6 °F 26.6 °F 30.04 in West 15.0 mph 22.0 mph 85% 0.00 in 70.00 W/m2
08:39 30.7 °F 26.7 °F 30.04 in West 14.0 mph 23.0 mph 85% 0.00 in 67.00 W/m2
08:40 30.7 °F 26.5 °F 30.04 in West 11.0 mph 22.0 mph 84% 0.00 in 56.00 W/m2
08:41 30.7 °F 26.5 °F 30.04 in West 12.0 mph 22.0 mph 84% 0.00 in 69.00 W/m2
08:43 30.8 °F 26.5 °F 30.04 in WNW 16.0 mph 23.0 mph 84% 0.00 in 69.00 W/m2
08:44 30.8 °F 26.5 °F 30.04 in West 13.0 mph 23.0 mph 84% 0.00 in 69.00 W/m2
08:46 30.8 °F 26.5 °F 30.04 in West 15.0 mph 26.0 mph 84% 0.00 in 63.00 W/m2
08:49 30.9 °F 26.4 °F 30.04 in West 13.0 mph 20.0 mph 83% 0.00 in 65.00 W/m2
08:51 30.9 °F 26.4 °F 30.04 in West 17.0 mph 23.0 mph 83% 0.00 in 70.00 W/m2
08:52 30.9 °F 26.4 °F 30.04 in West 14.0 mph 20.0 mph 83% 0.00 in 70.00 W/m2
08:54 30.9 °F 26.1 °F 30.05 in West 15.0 mph 20.0 mph 82% 0.00 in 70.00 W/m2
08:55 31.0 °F 26.2 °F 30.05 in WNW 14.0 mph 22.0 mph 82% 0.00 in 74.00 W/m2
08:56 31.0 °F 26.2 °F 30.04 in WNW 17.0 mph 23.0 mph 82% 0.00 in 79.00 W/m2
08:57 31.0 °F 26.2 °F 30.04 in West 22.0 mph 22.0 mph 82% 0.00 in 79.00 W/m2
09:00 31.0 °F 26.2 °F 30.04 in West 10.0 mph 17.0 mph 82% 0.00 in 81.00 W/m2
09:01 31.1 °F 26.3 °F 30.05 in West 10.0 mph 15.0 mph 82% 0.00 in 77.00 W/m2
09:02 31.1 °F 26.3 °F 30.05 in NW 12.0 mph 15.0 mph 82% 0.00 in 72.00 W/m2
09:05 31.0 °F 26.2 °F 30.05 in WNW 15.0 mph 19.0 mph 82% 0.00 in 84.00 W/m2
09:06 31.0 °F 26.2 °F 30.05 in WNW 13.0 mph 15.0 mph 82% 0.00 in 84.00 W/m2
09:07 31.0 °F 26.2 °F 30.05 in NW 10.0 mph 18.0 mph 82% 0.00 in 91.00 W/m2
09:10 31.0 °F 26.2 °F 30.05 in WNW 14.0 mph 19.0 mph 82% 0.00 in 120.00 W/m2
09:11 31.0 °F 26.2 °F 30.05 in NW 14.0 mph 18.0 mph 82% 0.00 in 121.00 W/m2
09:12 31.0 °F 25.9 °F 30.05 in West 19.0 mph 21.0 mph 81% 0.00 in 127.00 W/m2
09:13 31.0 °F 25.9 °F 30.05 in WNW 11.0 mph 21.0 mph 81% 0.00 in 114.00 W/m2
09:16 31.1 °F 25.7 °F 30.06 in WNW 18.0 mph 21.0 mph 80% 0.00 in 104.00 W/m2
09:17 31.1 °F 25.7 °F 30.06 in West 14.0 mph 21.0 mph 80% 0.00 in 113.00 W/m2
09:19 31.2 °F 25.8 °F 30.06 in NW 10.0 mph 22.0 mph 80% 0.00 in 116.00 W/m2
09:21 31.2 °F 25.8 °F 30.06 in NW 15.0 mph 23.0 mph 80% 0.00 in 113.00 W/m2
09:22 31.2 °F 25.8 °F 30.06 in West 11.0 mph 15.0 mph 80% 0.00 in 114.00 W/m2
09:23 31.2 °F 25.8 °F 30.06 in WNW 11.0 mph 15.0 mph 80% 0.00 in 118.00 W/m2
09:24 31.2 °F 25.8 °F 30.06 in WNW 9.0 mph 13.0 mph 80% 0.00 in 123.00 W/m2
09:27 31.2 °F 25.5 °F 30.06 in West 10.0 mph 22.0 mph 79% 0.00 in 151.00 W/m2
09:28 31.2 °F 25.5 °F 30.06 in WNW 13.0 mph 14.0 mph 79% 0.00 in 171.00 W/m2
09:31 31.2 °F 25.5 °F 30.06 in West 19.0 mph 19.0 mph 79% 0.00 in 186.00 W/m2
09:33 31.3 °F 25.6 °F 30.06 in West 11.0 mph 18.0 mph 79% 0.00 in 176.00 W/m2
09:34 31.3 °F 25.6 °F 30.06 in WNW 11.0 mph 18.0 mph 79% 0.00 in 176.00 W/m2
09:37 31.3 °F 25.6 °F 30.06 in West 6.0 mph 19.0 mph 79% 0.00 in 153.00 W/m2
09:38 31.3 °F 25.6 °F 30.06 in WSW 9.0 mph 14.0 mph 79% 0.00 in 142.00 W/m2
09:39 31.4 °F 25.6 °F 30.07 in West 11.0 mph 16.0 mph 79% 0.00 in 142.00 W/m2
09:43 31.3 °F 25.6 °F 30.07 in WNW 10.0 mph 18.0 mph 79% 0.00 in 123.00 W/m2
09:44 31.3 °F 25.2 °F 30.07 in WNW 9.0 mph 18.0 mph 78% 0.00 in 127.00 W/m2
09:47 31.3 °F 25.6 °F 30.07 in West 20.0 mph 21.0 mph 79% 0.00 in 127.00 W/m2
09:48 31.3 °F 25.6 °F 30.07 in West 15.0 mph 20.0 mph 79% 0.00 in 125.00 W/m2
09:49 31.2 °F 25.5 °F 30.07 in West 17.0 mph 24.0 mph 79% 0.00 in 132.00 W/m2
09:50 31.2 °F 25.5 °F 30.07 in WNW 11.0 mph 24.0 mph 79% 0.00 in 141.00 W/m2
09:52 31.1 °F 25.7 °F 30.07 in WNW 9.0 mph 21.0 mph 80% 0.00 in 155.00 W/m2
09:53 31.0 °F 25.3 °F 30.07 in West 20.0 mph 26.0 mph 79% 0.00 in 155.00 W/m2
09:54 31.0 °F 25.6 °F 30.07 in WSW 12.0 mph 26.0 mph 80% 0.00 in 156.00 W/m2
09:55 31.0 °F 25.6 °F 30.08 in WNW 10.0 mph 19.0 mph 80% 0.00 in 162.00 W/m2
09:57 31.0 °F 25.6 °F 30.08 in WNW 16.0 mph 18.0 mph 80% 0.00 in 151.00 W/m2
09:58 31.0 °F 25.6 °F 30.08 in West 12.0 mph 18.0 mph 80% 0.00 in 149.00 W/m2
09:59 31.0 °F 25.6 °F 30.08 in West 15.0 mph 21.0 mph 80% 0.00 in 144.00 W/m2
10:00 31.0 °F 25.6 °F 30.08 in WNW 18.0 mph 21.0 mph 80% 0.00 in 135.00 W/m2
10:01 31.0 °F 25.6 °F 30.08 in West 15.0 mph 24.0 mph 80% 0.00 in 135.00 W/m2
10:02 31.0 °F 25.6 °F 30.08 in West 15.0 mph 17.0 mph 80% 0.00 in 118.00 W/m2
10:04 31.0 °F 25.6 °F 30.08 in WNW 20.0 mph 24.0 mph 80% 0.00 in 134.00 W/m2
10:05 31.0 °F 25.6 °F 30.08 in West 18.0 mph 24.0 mph 80% 0.00 in 146.00 W/m2
10:07 31.0 °F 25.6 °F 30.08 in WNW 15.0 mph 23.0 mph 80% 0.00 in 171.00 W/m2
10:09 31.0 °F 25.6 °F 30.08 in WNW 22.0 mph 24.0 mph 80% 0.00 in 213.00 W/m2
10:10 30.9 °F 25.5 °F 30.08 in NW 18.0 mph 25.0 mph 80% 0.00 in 223.00 W/m2
10:11 31.0 °F 25.6 °F 30.08 in WNW 13.0 mph 25.0 mph 80% 0.00 in 230.00 W/m2
10:13 31.0 °F 25.6 °F 30.08 in WNW 22.0 mph 28.0 mph 80% 0.00 in 283.00 W/m2
10:14 31.0 °F 25.6 °F 30.08 in WNW 16.0 mph 28.0 mph 80% 0.00 in 272.00 W/m2
10:15 31.0 °F 25.6 °F 30.09 in West 15.0 mph 23.0 mph 80% 0.00 in 262.00 W/m2
10:16 31.0 °F 25.9 °F 30.08 in NW 18.0 mph 18.0 mph 81% 0.00 in 250.00 W/m2
10:18 31.0 °F 25.9 °F 30.09 in WNW 17.0 mph 22.0 mph 81% 0.00 in 260.00 W/m2
10:20 31.0 °F 25.9 °F 30.09 in WNW 22.0 mph 23.0 mph 81% 0.00 in 262.00 W/m2
10:21 31.0 °F 25.9 °F 30.09 in West 18.0 mph 23.0 mph 81% 0.00 in 297.00 W/m2
10:22 31.0 °F 25.9 °F 30.09 in WNW 18.0 mph 24.0 mph 81% 0.00 in 251.00 W/m2
10:23 31.0 °F 25.9 °F 30.09 in West 15.0 mph 24.0 mph 81% 0.00 in 246.00 W/m2
10:25 31.0 °F 26.2 °F 30.09 in WNW 17.0 mph 22.0 mph 82% 0.00 in 237.00 W/m2
10:27 31.0 °F 26.2 °F 30.10 in WNW 28.0 mph 28.0 mph 82% 0.00 in 250.00 W/m2
10:29 30.9 °F 26.1 °F 30.10 in WNW 16.0 mph 22.0 mph 82% 0.00 in 246.00 W/m2
10:30 30.9 °F 25.8 °F 30.10 in NW 12.0 mph 22.0 mph 81% 0.00 in 255.00 W/m2
10:32 30.8 °F 26.0 °F 30.10 in WNW 15.0 mph 26.0 mph 82% 0.00 in 257.00 W/m2
10:33 30.8 °F 26.0 °F 30.10 in WNW 16.0 mph 26.0 mph 82% 0.00 in 257.00 W/m2
10:34 30.8 °F 26.0 °F 30.10 in WNW 13.0 mph 19.0 mph 82% 0.00 in 241.00 W/m2
10:35 30.8 °F 26.0 °F 30.10 in West 12.0 mph 19.0 mph 82% 0.00 in 234.00 W/m2
10:36 30.8 °F 26.0 °F 30.10 in WNW 14.0 mph 22.0 mph 82% 0.00 in 250.00 W/m2
10:38 30.8 °F 26.0 °F 30.10 in WNW 14.0 mph 23.0 mph 82% 0.00 in 253.00 W/m2
10:39 30.9 °F 26.1 °F 30.10 in WNW 17.0 mph 20.0 mph 82% 0.00 in 244.00 W/m2
10:40 30.9 °F 26.1 °F 30.10 in West 21.0 mph 22.0 mph 82% 0.00 in 241.00 W/m2
10:41 30.9 °F 26.1 °F 30.10 in NW 19.0 mph 22.0 mph 82% 0.00 in 230.00 W/m2
10:44 30.9 °F 26.1 °F 30.11 in WNW 15.0 mph 19.0 mph 82% 0.00 in 271.00 W/m2
10:45 30.9 °F 26.1 °F 30.11 in WNW 16.0 mph 21.0 mph 82% 0.00 in 292.00 W/m2
10:46 30.9 °F 26.1 °F 30.11 in West 19.0 mph 21.0 mph 82% 0.00 in 339.00 W/m2
10:49 31.0 °F 26.2 °F 30.11 in WNW 17.0 mph 17.0 mph 82% 0.00 in 279.00 W/m2
10:50 31.0 °F 26.2 °F 30.11 in WNW 22.0 mph 22.0 mph 82% 0.00 in 260.00 W/m2
10:51 31.1 °F 26.3 °F 30.11 in NW 10.0 mph 22.0 mph 82% 0.00 in 272.00 W/m2
10:52 31.1 °F 26.3 °F 30.11 in WNW 14.0 mph 18.0 mph 82% 0.00 in 285.00 W/m2
10:54 31.0 °F 26.2 °F 30.11 in WNW 9.0 mph 22.0 mph 82% 0.00 in 193.00 W/m2
10:55 31.0 °F 26.2 °F 30.11 in WNW 19.0 mph 19.0 mph 82% 0.00 in 190.00 W/m2
10:56 31.0 °F 26.2 °F 30.11 in NW 16.0 mph 19.0 mph 82% 0.00 in 176.00 W/m2
10:57 30.9 °F 26.1 °F 30.11 in WNW 18.0 mph 19.0 mph 82% 0.00 in 165.00 W/m2
11:00 30.9 °F 26.1 °F 30.12 in NW 12.0 mph 15.0 mph 82% 0.00 in 116.00 W/m2
11:01 30.9 °F 26.1 °F 30.12 in WNW 7.0 mph 16.0 mph 82% 0.00 in 105.00 W/m2
11:02 30.9 °F 26.1 °F 30.12 in WNW 11.0 mph 16.0 mph 82% 0.00 in 105.00 W/m2
11:05 30.8 °F 26.0 °F 30.12 in WNW 18.0 mph 25.0 mph 82% 0.00 in 162.00 W/m2
11:06 30.7 °F 25.9 °F 30.12 in WNW 11.0 mph 25.0 mph 82% 0.00 in 188.00 W/m2
11:07 30.7 °F 25.6 °F 30.12 in NW 11.0 mph 21.0 mph 81% 0.00 in 223.00 W/m2
11:10 30.6 °F 25.2 °F 30.12 in WNW 17.0 mph 18.0 mph 80% 0.00 in 302.00 W/m2
11:11 30.7 °F 25.3 °F 30.12 in WNW 15.0 mph 18.0 mph 80% 0.00 in 302.00 W/m2
11:12 30.7 °F 25.0 °F 30.12 in NW 12.0 mph 19.0 mph 79% 0.00 in 311.00 W/m2
11:13 30.7 °F 24.7 °F 30.12 in NW 9.0 mph 18.0 mph 78% 0.00 in 225.00 W/m2
11:16 30.5 °F 23.9 °F 30.12 in NW 15.0 mph 23.0 mph 76% 0.00 in 148.00 W/m2
11:17 30.4 °F 23.8 °F 30.12 in WNW 18.0 mph 19.0 mph 76% 0.00 in 448.00 W/m2
11:18 30.4 °F 24.1 °F 30.12 in WNW 12.0 mph 19.0 mph 77% 0.00 in 394.00 W/m2
11:21 30.5 °F 24.2 °F 30.13 in NW 14.0 mph 21.0 mph 77% 0.00 in 241.00 W/m2
11:22 30.6 °F 24.0 °F 30.13 in WNW 16.0 mph 19.0 mph 76% 0.00 in 241.00 W/m2
11:23 30.6 °F 24.0 °F 30.13 in West 11.0 mph 19.0 mph 76% 0.00 in 216.00 W/m2
11:26 30.7 °F 23.7 °F 30.14 in NW 13.0 mph 23.0 mph 75% 0.00 in 439.00 W/m2
11:27 30.7 °F 23.7 °F 30.14 in WNW 18.0 mph 19.0 mph 75% 0.00 in 439.00 W/m2
11:28 30.7 °F 23.7 °F 30.14 in WNW 12.0 mph 19.0 mph 75% 0.00 in 439.00 W/m2
11:29 30.8 °F 23.5 °F 30.14 in WNW 11.0 mph 21.0 mph 74% 0.00 in 439.00 W/m2
11:31 30.9 °F 23.6 °F 30.14 in WNW 12.0 mph 20.0 mph 74% 0.00 in 559.00 W/m2
11:32 30.8 °F 23.2 °F 30.14 in West 15.0 mph 20.0 mph 73% 0.00 in 587.00 W/m2
11:34 30.7 °F 23.1 °F 30.14 in NW 13.0 mph 18.0 mph 73% 0.00 in 608.00 W/m2
11:35 30.7 °F 23.1 °F 30.14 in NW 14.0 mph 18.0 mph 73% 0.00 in 329.00 W/m2
11:36 30.7 °F 23.1 °F 30.14 in WNW 7.0 mph 21.0 mph 73% 0.00 in 329.00 W/m2
11:37 30.6 °F 23.0 °F 30.14 in NNW 11.0 mph 21.0 mph 73% 0.00 in 316.00 W/m2
11:40 30.6 °F 23.3 °F 30.14 in West 10.0 mph 15.0 mph 74% 0.00 in 392.00 W/m2
11:41 30.7 °F 23.4 °F 30.14 in WNW 13.0 mph 17.0 mph 74% 0.00 in 392.00 W/m2
11:42 30.8 °F 23.5 °F 30.14 in WNW 15.0 mph 16.0 mph 74% 0.00 in 392.00 W/m2
11:43 30.8 °F 23.5 °F 30.14 in NW 15.0 mph 21.0 mph 74% 0.00 in 410.00 W/m2
11:45 30.8 °F 23.2 °F 30.14 in WNW 16.0 mph 27.0 mph 73% 0.00 in 425.00 W/m2
11:47 30.6 °F 23.0 °F 30.15 in WNW 23.0 mph 23.0 mph 73% 0.00 in 425.00 W/m2
11:48 30.5 °F 22.9 °F 30.15 in NW 16.0 mph 24.0 mph 73% 0.00 in 628.00 W/m2
11:50 30.3 °F 22.4 °F 30.15 in NW 12.0 mph 20.0 mph 72% 0.00 in 311.00 W/m2
11:52 30.2 °F 22.6 °F 30.15 in WNW 13.0 mph 20.0 mph 73% 0.00 in 311.00 W/m2
11:53 30.2 °F 22.6 °F 30.15 in WNW 11.0 mph 21.0 mph 73% 0.00 in 329.00 W/m2
11:55 30.0 °F 22.7 °F 30.15 in WNW 12.0 mph 15.0 mph 74% 0.00 in 288.00 W/m2
11:57 30.0 °F 22.7 °F 30.15 in NW 10.0 mph 14.0 mph 74% 0.00 in 294.00 W/m2
11:59 29.9 °F 22.6 °F 30.15 in NW 19.0 mph 19.0 mph 74% 0.00 in 241.00 W/m2
12:00 29.8 °F 22.9 °F 30.15 in NW 13.0 mph 16.0 mph 75% 0.00 in 236.00 W/m2
12:02 29.7 °F 22.8 °F 30.15 in WNW 17.0 mph 17.0 mph 75% 0.00 in 253.00 W/m2
12:03 29.6 °F 22.7 °F 30.15 in NW 23.0 mph 23.0 mph 75% 0.00 in 257.00 W/m2
12:04 29.5 °F 22.2 °F 30.15 in WNW 15.0 mph 24.0 mph 74% 0.00 in 244.00 W/m2
12:05 29.4 °F 22.1 °F 30.15 in WNW 11.0 mph 22.0 mph 74% 0.00 in 271.00 W/m2
12:06 29.4 °F 22.1 °F 30.15 in NW 13.0 mph 22.0 mph 74% 0.00 in 271.00 W/m2
12:07 29.3 °F 22.1 °F 30.15 in WNW 13.0 mph 18.0 mph 74% 0.00 in 297.00 W/m2
12:08 29.3 °F 22.1 °F 30.16 in WNW 17.0 mph 18.0 mph 74% 0.00 in 297.00 W/m2
12:09 29.3 °F 22.1 °F 30.15 in NW 18.0 mph 21.0 mph 74% 0.00 in 287.00 W/m2
12:11 29.3 °F 22.1 °F 30.16 in WNW 17.0 mph 18.0 mph 74% 0.00 in 255.00 W/m2
12:12 29.2 °F 22.0 °F 30.16 in NW 17.0 mph 26.0 mph 74% 0.00 in 255.00 W/m2
12:13 29.3 °F 22.1 °F 30.15 in NW 7.0 mph 22.0 mph 74% 0.00 in 255.00 W/m2
12:14 29.4 °F 22.1 °F 30.16 in NW 18.0 mph 18.0 mph 74% 0.00 in 255.00 W/m2
12:16 29.3 °F 21.7 °F 30.16 in WNW 12.0 mph 20.0 mph 73% 0.00 in 167.00 W/m2
12:17 29.3 °F 21.7 °F 30.16 in WNW 14.0 mph 20.0 mph 73% 0.00 in 167.00 W/m2
12:18 29.3 °F 22.1 °F 30.16 in NW 11.0 mph 17.0 mph 74% 0.00 in 619.00 W/m2
12:20 29.4 °F 22.1 °F 30.16 in WNW 13.0 mph 20.0 mph 74% 0.00 in 619.00 W/m2
12:21 29.4 °F 22.1 °F 30.16 in West 19.0 mph 20.0 mph 74% 0.00 in 311.00 W/m2
12:22 29.3 °F 21.7 °F 30.16 in WNW 14.0 mph 22.0 mph 73% 0.00 in 308.00 W/m2
12:24 29.2 °F 21.6 °F 30.16 in WNW 9.0 mph 19.0 mph 73% 0.00 in 216.00 W/m2
12:26 29.2 °F 22.0 °F 30.16 in WNW 14.0 mph 25.0 mph 74% 0.00 in 267.00 W/m2
12:27 29.1 °F 21.9 °F 30.16 in WNW 15.0 mph 17.0 mph 74% 0.00 in 276.00 W/m2
12:28 29.1 °F 21.9 °F 30.16 in WNW 9.0 mph 17.0 mph 74% 0.00 in 283.00 W/m2
12:29 29.2 °F 22.3 °F 30.16 in WNW 13.0 mph 19.0 mph 75% 0.00 in 322.00 W/m2
12:31 29.1 °F 22.2 °F 30.16 in WNW 23.0 mph 24.0 mph 75% 0.00 in 288.00 W/m2
12:32 29.1 °F 21.9 °F 30.16 in WNW 14.0 mph 23.0 mph 74% 0.00 in 330.00 W/m2
12:33 29.2 °F 22.0 °F 30.16 in WNW 13.0 mph 22.0 mph 74% 0.00 in 330.00 W/m2
12:34 29.4 °F 22.5 °F 30.16 in WNW 13.0 mph 15.0 mph 75% 0.00 in 673.00 W/m2
12:36 29.8 °F 22.9 °F 30.16 in WNW 9.0 mph 16.0 mph 75% 0.00 in 612.00 W/m2
12:38 30.1 °F 22.5 °F 30.16 in WNW 16.0 mph 21.0 mph 73% 0.00 in 480.00 W/m2
12:39 30.1 °F 22.2 °F 30.16 in WNW 15.0 mph 21.0 mph 72% 0.00 in 480.00 W/m2
12:41 29.9 °F 21.7 °F 30.16 in WNW 17.0 mph 22.0 mph 71% 0.00 in 399.00 W/m2
12:43 29.6 °F 21.4 °F 30.16 in NW 9.0 mph 22.0 mph 71% 0.00 in 510.00 W/m2
12:44 29.6 °F 21.4 °F 30.17 in WNW 18.0 mph 22.0 mph 71% 0.00 in 313.00 W/m2
12:45 29.6 °F 21.4 °F 30.17 in WNW 19.0 mph 22.0 mph 71% 0.00 in 313.00 W/m2
12:46 29.5 °F 21.3 °F 30.16 in WNW 13.0 mph 22.0 mph 71% 0.00 in 348.00 W/m2
12:49 29.2 °F 20.6 °F 30.17 in West 14.0 mph 21.0 mph 70% 0.00 in 352.00 W/m2
12:50 29.0 °F 20.8 °F 30.16 in WNW 17.0 mph 22.0 mph 71% 0.00 in 287.00 W/m2
12:52 28.8 °F 20.6 °F 30.17 in NW 10.0 mph 21.0 mph 71% 0.00 in 141.00 W/m2
12:54 28.5 °F 20.6 °F 30.17 in West 14.0 mph 22.0 mph 72% 0.00 in 158.00 W/m2
12:55 28.5 °F 20.6 °F 30.17 in NW 12.0 mph 17.0 mph 72% 0.00 in 176.00 W/m2
12:56 28.4 °F 20.5 °F 30.17 in West 16.0 mph 16.0 mph 72% 0.00 in 213.00 W/m2
12:58 28.3 °F 20.8 °F 30.17 in WNW 15.0 mph 21.0 mph 73% 0.00 in 213.00 W/m2
13:00 28.5 °F 21.3 °F 30.17 in WNW 13.0 mph 18.0 mph 74% 0.00 in 297.00 W/m2
13:01 28.6 °F 21.7 °F 30.17 in West 14.0 mph 19.0 mph 75% 0.00 in 297.00 W/m2
13:03 28.7 °F 21.8 °F 30.17 in WNW 9.0 mph 18.0 mph 75% 0.00 in 306.00 W/m2
13:05 29.0 °F 22.1 °F 30.17 in WNW 7.0 mph 18.0 mph 75% 0.00 in 482.00 W/m2
13:06 29.1 °F 22.2 °F 30.17 in West 16.0 mph 18.0 mph 75% 0.00 in 482.00 W/m2
13:07 29.3 °F 22.4 °F 30.17 in WNW 15.0 mph 19.0 mph 75% 0.00 in 482.00 W/m2
13:08 29.3 °F 22.1 °F 30.17 in WNW 7.0 mph 18.0 mph 74% 0.00 in 482.00 W/m2
13:11 29.0 °F 21.4 °F 30.17 in WNW 12.0 mph 19.0 mph 73% 0.00 in 482.00 W/m2
13:12 28.8 °F 21.2 °F 30.17 in WNW 11.0 mph 17.0 mph 73% 0.00 in 420.00 W/m2
13:13 28.7 °F 21.1 °F 30.17 in NW 7.0 mph 15.0 mph 73% 0.00 in 490.00 W/m2
13:16 28.6 °F 20.7 °F 30.17 in NW 12.0 mph 16.0 mph 72% 0.00 in 448.00 W/m2
13:17 28.6 °F 20.7 °F 30.17 in West 7.0 mph 14.0 mph 72% 0.00 in 308.00 W/m2
13:19 28.7 °F 21.1 °F 30.17 in West 15.0 mph 21.0 mph 73% 0.00 in 318.00 W/m2
13:21 28.9 °F 21.4 °F 30.17 in West 10.0 mph 17.0 mph 73% 0.00 in 394.00 W/m2
13:22 28.9 °F 21.4 °F 30.17 in WNW 16.0 mph 17.0 mph 73% 0.00 in 306.00 W/m2
13:23 28.9 °F 21.4 °F 30.18 in WNW 17.0 mph 17.0 mph 73% 0.00 in 225.00 W/m2
13:24 28.9 °F 21.4 °F 30.18 in WNW 17.0 mph 17.0 mph 73% 0.00 in 267.00 W/m2
13:26 28.8 °F 21.2 °F 30.17 in NW 12.0 mph 17.0 mph 73% 0.00 in 171.00 W/m2
13:28 28.8 °F 21.2 °F 30.18 in WNW 12.0 mph 15.0 mph 73% 0.00 in 86.00 W/m2
13:29 28.9 °F 21.4 °F 30.17 in West 16.0 mph 21.0 mph 73% 0.00 in 188.00 W/m2
13:31 28.9 °F 21.4 °F 30.18 in West 12.0 mph 21.0 mph 73% 0.00 in 265.00 W/m2
13:32 28.9 °F 21.0 °F 30.17 in WNW 17.0 mph 19.0 mph 72% 0.00 in 227.00 W/m2
13:33 28.8 °F 21.2 °F 30.18 in WNW 11.0 mph 19.0 mph 73% 0.00 in 267.00 W/m2
13:37 29.0 °F 21.4 °F 30.18 in WSW 12.0 mph 15.0 mph 73% 0.00 in 220.00 W/m2
13:39 29.1 °F 21.5 °F 30.18 in WNW 13.0 mph 17.0 mph 73% 0.00 in 299.00 W/m2
13:42 29.1 °F 21.9 °F 30.18 in NW 18.0 mph 18.0 mph 74% 0.00 in 207.00 W/m2
13:43 29.2 °F 22.0 °F 30.18 in WNW 22.0 mph 22.0 mph 74% 0.00 in 264.00 W/m2
13:44 29.1 °F 21.9 °F 30.18 in WNW 15.0 mph 22.0 mph 74% 0.00 in 255.00 W/m2
13:47 29.1 °F 21.9 °F 30.18 in WNW 16.0 mph 16.0 mph 74% 0.00 in 202.00 W/m2
13:48 29.1 °F 21.9 °F 30.18 in WNW 7.0 mph 17.0 mph 74% 0.00 in 288.00 W/m2
13:49 29.2 °F 22.0 °F 30.18 in WNW 16.0 mph 17.0 mph 74% 0.00 in 265.00 W/m2
13:50 29.2 °F 22.0 °F 30.18 in WNW 12.0 mph 17.0 mph 74% 0.00 in 265.00 W/m2
13:52 29.2 °F 22.3 °F 30.18 in WNW 13.0 mph 15.0 mph 75% 0.00 in 302.00 W/m2
13:53 29.2 °F 22.3 °F 30.18 in NW 14.0 mph 21.0 mph 75% 0.00 in 338.00 W/m2
13:54 29.2 °F 22.3 °F 30.18 in WNW 10.0 mph 21.0 mph 75% 0.00 in 338.00 W/m2
13:56 29.2 °F 22.3 °F 30.18 in NW 16.0 mph 16.0 mph 75% 0.00 in 188.00 W/m2
13:58 29.1 °F 21.5 °F 30.18 in WNW 14.0 mph 19.0 mph 73% 0.00 in 220.00 W/m2
13:59 29.1 °F 21.9 °F 30.18 in WNW 12.0 mph 17.0 mph 74% 0.00 in 105.00 W/m2
14:00 29.1 °F 21.9 °F 30.18 in WNW 11.0 mph 16.0 mph 74% 0.00 in 125.00 W/m2
14:01 29.1 °F 21.9 °F 30.19 in NW 18.0 mph 21.0 mph 74% 0.00 in 125.00 W/m2
14:03 29.0 °F 21.4 °F 30.18 in WNW 11.0 mph 18.0 mph 73% 0.00 in 334.00 W/m2
14:05 29.0 °F 21.4 °F 30.18 in WNW 11.0 mph 18.0 mph 73% 0.00 in 380.00 W/m2
14:06 29.0 °F 21.4 °F 30.19 in NW 13.0 mph 19.0 mph 73% 0.00 in 392.00 W/m2
14:08 29.1 °F 21.9 °F 30.19 in West 11.0 mph 17.0 mph 74% 0.00 in 436.00 W/m2
14:10 29.2 °F 22.0 °F 30.19 in WNW 10.0 mph 12.0 mph 74% 0.00 in 320.00 W/m2
14:11 29.1 °F 21.5 °F 30.19 in WNW 11.0 mph 16.0 mph 73% 0.00 in 336.00 W/m2
14:13 29.1 °F 21.5 °F 30.19 in WNW 8.0 mph 12.0 mph 73% 0.00 in 425.00 W/m2
14:15 29.2 °F 22.0 °F 30.19 in WNW 13.0 mph 15.0 mph 74% 0.00 in 260.00 W/m2
14:16 29.2 °F 21.6 °F 30.19 in WNW 8.0 mph 17.0 mph 73% 0.00 in 241.00 W/m2
14:18 29.2 °F 21.6 °F 30.19 in WNW 15.0 mph 15.0 mph 73% 0.00 in 281.00 W/m2
14:20 29.1 °F 21.5 °F 30.19 in WNW 11.0 mph 14.0 mph 73% 0.00 in 392.00 W/m2
14:21 29.2 °F 21.6 °F 30.19 in West 5.0 mph 14.0 mph 73% 0.00 in 390.00 W/m2
14:23 29.3 °F 21.7 °F 30.19 in NW 13.0 mph 16.0 mph 73% 0.00 in 394.00 W/m2
14:25 29.2 °F 21.3 °F 30.19 in West 11.0 mph 15.0 mph 72% 0.00 in 371.00 W/m2
14:26 29.2 °F 21.0 °F 30.19 in WNW 6.0 mph 13.0 mph 71% 0.00 in 360.00 W/m2
14:27 29.2 °F 21.0 °F 30.19 in West 7.0 mph 13.0 mph 71% 0.00 in 360.00 W/m2
14:29 29.1 °F 20.9 °F 30.19 in West 12.0 mph 16.0 mph 71% 0.00 in 371.00 W/m2
14:31 29.1 °F 20.9 °F 30.20 in NW 15.0 mph 16.0 mph 71% 0.00 in 376.00 W/m2
14:32 29.1 °F 20.9 °F 30.20 in WNW 14.0 mph 17.0 mph 71% 0.00 in 338.00 W/m2
14:33 29.1 °F 20.9 °F 30.20 in NW 11.0 mph 14.0 mph 71% 0.00 in 301.00 W/m2
14:34 29.1 °F 20.9 °F 30.20 in WNW 11.0 mph 19.0 mph 71% 0.00 in 339.00 W/m2
14:37 29.1 °F 20.9 °F 30.20 in NW 16.0 mph 19.0 mph 71% 0.00 in 241.00 W/m2
14:39 29.1 °F 20.9 °F 30.20 in WNW 10.0 mph 20.0 mph 71% 0.00 in 316.00 W/m2
14:40 29.1 °F 20.9 °F 30.20 in West 6.0 mph 20.0 mph 71% 0.00 in 229.00 W/m2
14:42 29.1 °F 20.9 °F 30.20 in WNW 13.0 mph 13.0 mph 71% 0.00 in 285.00 W/m2
14:43 29.1 °F 20.9 °F 30.20 in WNW 15.0 mph 17.0 mph 71% 0.00 in 267.00 W/m2
14:44 29.0 °F 20.8 °F 30.20 in WNW 13.0 mph 20.0 mph 71% 0.00 in 257.00 W/m2
14:45 29.0 °F 20.8 °F 30.20 in WNW 11.0 mph 20.0 mph 71% 0.00 in 345.00 W/m2
14:47 29.0 °F 20.8 °F 30.20 in WNW 10.0 mph 18.0 mph 71% 0.00 in 309.00 W/m2
14:48 29.0 °F 20.8 °F 30.20 in West 10.0 mph 17.0 mph 71% 0.00 in 336.00 W/m2
14:50 29.1 °F 20.9 °F 30.20 in WNW 12.0 mph 15.0 mph 71% 0.00 in 279.00 W/m2
14:51 29.1 °F 20.9 °F 30.20 in WNW 11.0 mph 14.0 mph 71% 0.00 in 272.00 W/m2
14:52 29.1 °F 20.9 °F 30.20 in West 10.0 mph 12.0 mph 71% 0.00 in 279.00 W/m2
14:53 29.1 °F 20.9 °F 30.20 in WNW 11.0 mph 12.0 mph 71% 0.00 in 262.00 W/m2
14:54 29.1 °F 20.9 °F 30.20 in West 10.0 mph 12.0 mph 71% 0.00 in 230.00 W/m2
14:55 29.2 °F 21.0 °F 30.20 in West 16.0 mph 18.0 mph 71% 0.00 in 202.00 W/m2
14:57 29.2 °F 21.0 °F 30.20 in WNW 13.0 mph 15.0 mph 71% 0.00 in 155.00 W/m2
14:58 29.2 °F 21.0 °F 30.20 in West 6.0 mph 15.0 mph 71% 0.00 in 142.00 W/m2
15:00 29.3 °F 21.1 °F 30.20 in WNW 8.0 mph 15.0 mph 71% 0.00 in 116.00 W/m2
15:02 29.3 °F 21.1 °F 30.20 in WNW 13.0 mph 14.0 mph 71% 0.00 in 111.00 W/m2
15:04 29.3 °F 21.1 °F 30.20 in West 13.0 mph 14.0 mph 71% 0.00 in 127.00 W/m2
15:05 29.2 °F 21.0 °F 30.20 in WNW 12.0 mph 14.0 mph 71% 0.00 in 100.00 W/m2
15:07 29.3 °F 21.4 °F 30.20 in WNW 6.0 mph 12.0 mph 72% 0.00 in 97.00 W/m2
15:09 29.3 °F 21.4 °F 30.20 in WNW 12.0 mph 14.0 mph 72% 0.00 in 114.00 W/m2
15:10 29.3 °F 21.4 °F 30.21 in WNW 11.0 mph 14.0 mph 72% 0.00 in 97.00 W/m2
15:13 29.4 °F 21.5 °F 30.21 in WNW 7.0 mph 11.0 mph 72% 0.00 in 62.00 W/m2
15:14 29.4 °F 21.5 °F 30.21 in WNW 13.0 mph 13.0 mph 72% 0.00 in 62.00 W/m2
15:15 29.5 °F 21.6 °F 30.21 in NW 11.0 mph 13.0 mph 72% 0.00 in 79.00 W/m2
15:18 29.4 °F 21.5 °F 30.21 in NW 6.0 mph 11.0 mph 72% 0.00 in 111.00 W/m2
15:19 29.4 °F 21.5 °F 30.21 in WNW 10.0 mph 11.0 mph 72% 0.00 in 95.00 W/m2
15:20 29.4 °F 21.5 °F 30.21 in WNW 7.0 mph 11.0 mph 72% 0.00 in 95.00 W/m2
15:25 29.4 °F 21.8 °F 30.21 in WNW 5.0 mph 10.0 mph 73% 0.00 in 95.00 W/m2
15:27 29.4 °F 21.8 °F 30.21 in WNW 8.0 mph 11.0 mph 73% 0.00 in 95.00 W/m2
15:30 29.3 °F 21.7 °F 30.22 in NW 6.0 mph 10.0 mph 73% 0.00 in 63.00 W/m2
15:31 29.3 °F 21.7 °F 30.22 in WNW 10.0 mph 11.0 mph 73% 0.00 in 63.00 W/m2
15:32 29.3 °F 22.1 °F 30.22 in NW 6.0 mph 12.0 mph 74% 0.00 in 58.00 W/m2
15:35 29.2 °F 22.0 °F 30.22 in WNW 9.0 mph 13.0 mph 74% 0.00 in 76.00 W/m2
15:36 29.2 °F 22.0 °F 30.22 in WNW 10.0 mph 14.0 mph 74% 0.00 in 76.00 W/m2
15:37 29.2 °F 22.0 °F 30.22 in NW 8.0 mph 14.0 mph 74% 0.00 in 62.00 W/m2
15:38 29.2 °F 22.0 °F 30.22 in WNW 4.0 mph 12.0 mph 74% 0.00 in 88.00 W/m2
15:39 29.1 °F 21.9 °F 30.22 in WNW 7.0 mph 9.0 mph 74% 0.00 in 97.00 W/m2
15:41 29.1 °F 21.9 °F 30.22 in West 5.0 mph 9.0 mph 74% 0.00 in 79.00 W/m2
15:42 29.1 °F 22.2 °F 30.22 in WNW 9.0 mph 13.0 mph 75% 0.00 in 70.00 W/m2
15:43 29.1 °F 22.2 °F 30.22 in WNW 6.0 mph 13.0 mph 75% 0.00 in 63.00 W/m2
15:44 29.1 °F 22.2 °F 30.23 in West 6.0 mph 11.0 mph 75% 0.00 in 54.00 W/m2
15:46 29.2 °F 22.0 °F 30.23 in West 8.0 mph 11.0 mph 74% 0.00 in 49.00 W/m2
15:48 29.1 °F 21.9 °F 30.23 in NW 11.0 mph 12.0 mph 74% 0.00 in 67.00 W/m2
15:49 29.1 °F 21.9 °F 30.23 in WNW 10.0 mph 15.0 mph 74% 0.00 in 56.00 W/m2
15:51 29.0 °F 21.8 °F 30.23 in West 14.0 mph 14.0 mph 74% 0.00 in 65.00 W/m2
15:53 28.9 °F 21.0 °F 30.24 in West 11.0 mph 14.0 mph 72% 0.00 in 65.00 W/m2
15:54 28.8 °F 20.6 °F 30.24 in WNW 8.0 mph 14.0 mph 71% 0.00 in 70.00 W/m2
15:55 28.8 °F 20.3 °F 30.24 in NW 9.0 mph 14.0 mph 70% 0.00 in 70.00 W/m2
15:56 28.7 °F 20.2 °F 30.24 in WNW 7.0 mph 14.0 mph 70% 0.00 in 44.00 W/m2
15:58 28.6 °F 19.7 °F 30.24 in West 9.0 mph 14.0 mph 69% 0.00 in 79.00 W/m2
15:59 28.5 °F 19.6 °F 30.24 in WNW 6.0 mph 13.0 mph 69% 0.00 in 88.00 W/m2
16:00 28.5 °F 19.6 °F 30.24 in WNW 11.0 mph 11.0 mph 69% 0.00 in 88.00 W/m2
16:01 28.4 °F 19.5 °F 30.24 in WNW 10.0 mph 12.0 mph 69% 0.00 in 91.00 W/m2
16:03 28.3 °F 19.5 °F 30.24 in WNW 11.0 mph 16.0 mph 69% 0.00 in 51.00 W/m2
16:04 28.3 °F 19.5 °F 30.24 in WNW 10.0 mph 16.0 mph 69% 0.00 in 51.00 W/m2
16:05 28.3 °F 19.5 °F 30.24 in WNW 10.0 mph 12.0 mph 69% 0.00 in 32.00 W/m2
16:07 28.3 °F 19.5 °F 30.24 in West 9.0 mph 14.0 mph 69% 0.00 in 28.00 W/m2
16:10 28.2 °F 19.4 °F 30.24 in WNW 11.0 mph 11.0 mph 69% 0.00 in 28.00 W/m2
16:11 28.2 °F 19.4 °F 30.24 in WNW 10.0 mph 11.0 mph 69% 0.00 in 26.00 W/m2
16:12 28.1 °F 19.6 °F 30.24 in West 7.0 mph 11.0 mph 70% 0.00 in 26.00 W/m2
16:15 28.1 °F 19.6 °F 30.24 in WNW 4.0 mph 8.0 mph 70% 0.00 in 40.00 W/m2
16:17 28.1 °F 19.6 °F 30.24 in WNW 4.0 mph 7.0 mph 70% 0.00 in 56.00 W/m2
16:20 28.0 °F 19.8 °F 30.24 in WNW 4.0 mph 6.0 mph 71% 0.00 in 56.00 W/m2
16:21 27.9 °F 19.7 °F 30.24 in NW 7.0 mph 9.0 mph 71% 0.00 in 56.00 W/m2
16:22 27.9 °F 19.7 °F 30.24 in WNW 5.0 mph 9.0 mph 71% 0.00 in 56.00 W/m2
16:23 27.8 °F 19.6 °F 30.24 in WNW 7.0 mph 7.0 mph 71% 0.00 in 49.00 W/m2
16:26 27.7 °F 19.5 °F 30.24 in WNW 8.0 mph 8.0 mph 71% 0.00 in 23.00 W/m2
16:27 27.7 °F 19.9 °F 30.24 in WNW 5.0 mph 8.0 mph 72% 0.00 in 21.00 W/m2
16:28 27.7 °F 19.9 °F 30.24 in WNW 8.0 mph 10.0 mph 72% 0.00 in 21.00 W/m2
16:29 27.7 °F 19.9 °F 30.24 in WNW 6.0 mph 10.0 mph 72% 0.00 in 21.00 W/m2
16:32 27.6 °F 19.8 °F 30.24 in NW 5.0 mph 7.0 mph 72% 0.00 in 19.00 W/m2
16:35 27.5 °F 19.7 °F 30.24 in WNW 4.0 mph 7.0 mph 72% 0.00 in 19.00 W/m2
16:37 27.4 °F 19.6 °F 30.24 in WNW 3.0 mph 6.0 mph 72% 0.00 in 18.00 W/m2
16:41 27.4 °F 19.9 °F 30.24 in WNW 5.0 mph 5.0 mph 73% 0.00 in 16.00 W/m2
16:42 27.3 °F 19.8 °F 30.24 in West 4.0 mph 9.0 mph 73% 0.00 in 16.00 W/m2
16:43 27.3 °F 19.8 °F 30.24 in WNW 4.0 mph 9.0 mph 73% 0.00 in 16.00 W/m2
16:46 27.1 °F 19.6 °F 30.24 in WNW 3.0 mph 6.0 mph 73% 0.00 in 12.00 W/m2
16:47 27.1 °F 19.9 °F 30.24 in WNW 4.0 mph 4.0 mph 74% 0.00 in 12.00 W/m2
16:48 27.1 °F 19.9 °F 30.24 in WNW 5.0 mph 5.0 mph 74% 0.00 in 12.00 W/m2
16:51 27.1 °F 19.9 °F 30.24 in WNW 5.0 mph 6.0 mph 74% 0.00 in 7.00 W/m2
16:52 27.0 °F 19.8 °F 30.24 in WNW 3.0 mph 6.0 mph 74% 0.00 in 7.00 W/m2
16:53 27.0 °F 19.8 °F 30.24 in WNW 4.0 mph 6.0 mph 74% 0.00 in 7.00 W/m2
16:54 27.0 °F 19.8 °F 30.24 in WNW 4.0 mph 5.0 mph 74% 0.00 in 7.00 W/m2
16:56 26.9 °F 19.7 °F 30.25 in West 3.0 mph 5.0 mph 74% 0.00 in 5.00 W/m2
16:57 26.9 °F 19.7 °F 30.24 in WNW 4.0 mph 6.0 mph 74% 0.00 in 5.00 W/m2
16:58 26.9 °F 19.7 °F 30.24 in WNW 2.0 mph 6.0 mph 74% 0.00 in 5.00 W/m2
16:59 26.9 °F 19.7 °F 30.24 in West 5.0 mph 5.0 mph 74% 0.00 in 0.00 W/m2
17:01 26.7 °F 19.5 °F 30.24 in WNW 4.0 mph 7.0 mph 74% 0.00 in 0.00 W/m2
17:03 26.7 °F 19.5 °F 30.24 in WNW 5.0 mph 9.0 mph 74% 0.00 in 0.00 W/m2
17:04 26.6 °F 19.8 °F 30.24 in West 5.0 mph 6.0 mph 75% 0.00 in 0.00 W/m2
17:07 26.5 °F 19.7 °F 30.24 in West 4.0 mph 6.0 mph 75% 0.00 in 0.00 W/m2
17:08 26.4 °F 19.6 °F 30.24 in West 3.0 mph 5.0 mph 75% 0.00 in 0.00 W/m2
17:09 26.4 °F 19.6 °F 30.24 in West 2.0 mph 5.0 mph 75% 0.00 in 0.00 W/m2
17:12 26.3 °F 19.8 °F 30.24 in West 5.0 mph 6.0 mph 76% 0.00 in 0.00 W/m2
17:14 26.2 °F 19.7 °F 30.24 in West 2.0 mph 6.0 mph 76% 0.00 in 0.00 W/m2
17:15 26.1 °F 19.6 °F 30.24 in West 4.0 mph 6.0 mph 76% 0.00 in 0.00 W/m2
17:16 26.1 °F 19.6 °F 30.24 in West 2.0 mph 5.0 mph 76% 0.00 in 0.00 W/m2
17:17 26.0 °F 19.5 °F 30.24 in West 4.0 mph 6.0 mph 76% 0.00 in 0.00 W/m2
17:19 26.0 °F 19.8 °F 30.24 in West 4.0 mph 7.0 mph 77% 0.00 in 0.00 W/m2
17:20 26.0 °F 19.8 °F 30.25 in West 7.0 mph 7.0 mph 77% 0.00 in 0.00 W/m2
17:22 25.9 °F 19.7 °F 30.25 in West 6.0 mph 7.0 mph 77% 0.00 in 0.00 W/m2
17:24 25.8 °F 19.6 °F 30.25 in West 5.0 mph 7.0 mph 77% 0.00 in 0.00 W/m2
17:25 25.8 °F 19.6 °F 30.25 in West 3.0 mph 5.0 mph 77% 0.00 in 0.00 W/m2
17:27 25.7 °F 19.5 °F 30.25 in West 4.0 mph 7.0 mph 77% 0.00 in 0.00 W/m2
17:29 25.7 °F 19.5 °F 30.25 in West 4.0 mph 5.0 mph 77% 0.00 in 0.00 W/m2
17:30 25.7 °F 19.5 °F 30.25 in West 5.0 mph 7.0 mph 77% 0.00 in 0.00 W/m2
17:31 25.7 °F 19.5 °F 30.25 in West 5.0 mph 7.0 mph 77% 0.00 in 0.00 W/m2
17:32 25.6 °F 19.1 °F 30.25 in West 4.0 mph 5.0 mph 76% 0.00 in 0.00 W/m2
17:34 25.6 °F 19.1 °F 30.25 in West 3.0 mph 7.0 mph 76% 0.00 in 0.00 W/m2
17:35 25.6 °F 19.1 °F 30.25 in West 4.0 mph 6.0 mph 76% 0.00 in 0.00 W/m2
17:36 25.6 °F 19.1 °F 30.25 in West 5.0 mph 7.0 mph 76% 0.00 in 0.00 W/m2
17:38 25.6 °F 19.1 °F 30.25 in West 5.0 mph 5.0 mph 76% 0.00 in 0.00 W/m2
17:40 25.6 °F 19.1 °F 30.25 in Calm   3.0 mph 76% 0.00 in 0.00 W/m2
17:41 25.5 °F 19.0 °F 30.25 in West 1.0 mph 4.0 mph 76% 0.00 in 0.00 W/m2
17:43 25.5 °F 19.0 °F 30.25 in West 3.0 mph 5.0 mph 76% 0.00 in 0.00 W/m2
17:44 25.5 °F 19.0 °F 30.25 in West 3.0 mph 5.0 mph 76% 0.00 in 0.00 W/m2
17:45 25.5 °F 19.0 °F 30.25 in West 4.0 mph 4.0 mph 76% 0.00 in 0.00 W/m2
17:46 25.4 °F 18.9 °F 30.25 in West 5.0 mph 5.0 mph 76% 0.00 in 0.00 W/m2
17:47 25.4 °F 18.6 °F 30.25 in West 4.0 mph 5.0 mph 75% 0.00 in 0.00 W/m2
17:49 25.3 °F 18.5 °F 30.25 in West 5.0 mph 6.0 mph 75% 0.00 in 0.00 W/m2
17:50 25.3 °F 18.5 °F 30.25 in West 4.0 mph 5.0 mph 75% 0.00 in 0.00 W/m2
17:51 25.3 °F 18.5 °F 30.25 in West 4.0 mph 5.0 mph 75% 0.00 in 0.00 W/m2
17:54 25.2 °F 18.7 °F 30.26 in West 4.0 mph 4.0 mph 76% 0.00 in 0.00 W/m2
17:55 25.2 °F 18.7 °F 30.26 in West 3.0 mph 4.0 mph 76% 0.00 in 0.00 W/m2
17:56 25.2 °F 18.7 °F 30.26 in West 3.0 mph 5.0 mph 76% 0.00 in 0.00 W/m2
17:59 25.2 °F 18.7 °F 30.26 in West 5.0 mph 5.0 mph 76% 0.00 in 0.00 W/m2
18:00 25.2 °F 18.7 °F 30.26 in West 3.0 mph 6.0 mph 76% 0.00 in 0.00 W/m2
18:01 25.3 °F 18.8 °F 30.26 in West 4.0 mph 6.0 mph 76% 0.00 in 0.00 W/m2
18:05 25.3 °F 18.8 °F 30.27 in West 5.0 mph 8.0 mph 76% 0.00 in 0.00 W/m2
18:07 25.4 °F 18.9 °F 30.27 in West 5.0 mph 8.0 mph 76% 0.00 in 0.00 W/m2
18:10 25.5 °F 19.0 °F 30.26 in WSW 5.0 mph 9.0 mph 76% 0.00 in 0.00 W/m2
18:11 25.5 °F 19.0 °F 30.27 in West 4.0 mph 9.0 mph 76% 0.00 in 0.00 W/m2
18:12 25.5 °F 19.0 °F 30.27 in West 5.0 mph 7.0 mph 76% 0.00 in 0.00 W/m2
18:15 25.4 °F 18.9 °F 30.27 in West 4.0 mph 7.0 mph 76% 0.00 in 0.00 W/m2
18:16 25.3 °F 18.5 °F 30.27 in West 7.0 mph 7.0 mph 75% 0.00 in 0.00 W/m2
18:17 25.4 °F 18.6 °F 30.27 in West 5.0 mph 10.0 mph 75% 0.00 in 0.00 W/m2
18:21 25.1 °F 18.3 °F 30.27 in West 4.0 mph 8.0 mph 75% 0.00 in 0.00 W/m2
18:22 25.1 °F 18.3 °F 30.27 in West 4.0 mph 8.0 mph 75% 0.00 in 0.00 W/m2
18:23 25.0 °F 18.2 °F 30.27 in West 5.0 mph 6.0 mph 75% 0.00 in 0.00 W/m2
18:27 24.8 °F 18.0 °F 30.27 in West 6.0 mph 7.0 mph 75% 0.00 in 0.00 W/m2
18:29 24.7 °F 18.2 °F 30.27 in West 6.0 mph 6.0 mph 76% 0.00 in 0.00 W/m2
18:32 24.6 °F 18.1 °F 30.27 in West 4.0 mph 6.0 mph 76% 0.00 in 0.00 W/m2
18:33 24.5 °F 18.0 °F 30.27 in West 6.0 mph 7.0 mph 76% 0.00 in 0.00 W/m2
18:34 24.5 °F 18.0 °F 30.27 in West 3.0 mph 7.0 mph 76% 0.00 in 0.00 W/m2
18:37 24.4 °F 17.9 °F 30.27 in West 4.0 mph 7.0 mph 76% 0.00 in 0.00 W/m2
18:38 24.4 °F 17.9 °F 30.27 in West 4.0 mph 6.0 mph 76% 0.00 in 0.00 W/m2
18:39 24.3 °F 17.8 °F 30.27 in West 5.0 mph 7.0 mph 76% 0.00 in 0.00 W/m2
18:41 24.3 °F 17.8 °F 30.27 in West 4.0 mph 6.0 mph 76% 0.00 in 0.00 W/m2
18:42 24.2 °F 17.7 °F 30.27 in West 3.0 mph 6.0 mph 76% 0.00 in 0.00 W/m2
18:43 24.2 °F 17.7 °F 30.27 in West 4.0 mph 7.0 mph 76% 0.00 in 0.00 W/m2
18:44 24.2 °F 17.7 °F 30.27 in West 3.0 mph 7.0 mph 76% 0.00 in 0.00 W/m2
18:45 24.2 °F 18.0 °F 30.27 in West 6.0 mph 6.0 mph 77% 0.00 in 0.00 W/m2
18:46 24.3 °F 18.1 °F 30.27 in West 3.0 mph 6.0 mph 77% 0.00 in 0.00 W/m2
18:47 24.2 °F 17.7 °F 30.27 in West 5.0 mph 6.0 mph 76% 0.00 in 0.00 W/m2
18:48 24.2 °F 17.7 °F 30.27 in West 3.0 mph 6.0 mph 76% 0.00 in 0.00 W/m2
18:49 24.2 °F 18.0 °F 30.27 in West 5.0 mph 5.0 mph 77% 0.00 in 0.00 W/m2
18:50 24.2 °F 18.0 °F 30.27 in West 3.0 mph 5.0 mph 77% 0.00 in 0.00 W/m2
18:51 24.3 °F 18.1 °F 30.27 in West 3.0 mph 4.0 mph 77% 0.00 in 0.00 W/m2
18:52 24.3 °F 18.1 °F 30.27 in West 6.0 mph 6.0 mph 77% 0.00 in 0.00 W/m2
18:53 24.3 °F 18.1 °F 30.27 in West 3.0 mph 6.0 mph 77% 0.00 in 0.00 W/m2
18:55 24.3 °F 18.1 °F 30.27 in West 3.0 mph 6.0 mph 77% 0.00 in 0.00 W/m2
18:56 24.3 °F 18.1 °F 30.27 in West 4.0 mph 5.0 mph 77% 0.00 in 0.00 W/m2
18:57 24.2 °F 17.7 °F 30.27 in West 2.0 mph 5.0 mph 76% 0.00 in 0.00 W/m2
18:58 24.2 °F 18.0 °F 30.27 in West 3.0 mph 4.0 mph 77% 0.00 in 0.00 W/m2
19:00 24.2 °F 17.7 °F 30.27 in West 3.0 mph 4.0 mph 76% 0.00 in 0.00 W/m2
19:01 24.1 °F 17.6 °F 30.27 in West 3.0 mph 4.0 mph 76% 0.00 in 0.00 W/m2
19:03 24.1 °F 18.0 °F 30.27 in West 4.0 mph 4.0 mph 77% 0.00 in 0.00 W/m2
19:04 24.0 °F 17.9 °F 30.27 in West 4.0 mph 5.0 mph 77% 0.00 in 0.00 W/m2
19:06 24.0 °F 17.9 °F 30.28 in West 2.0 mph 5.0 mph 77% 0.00 in 0.00 W/m2
19:07 24.0 °F 17.9 °F 30.27 in West 5.0 mph 5.0 mph 77% 0.00 in 0.00 W/m2
19:08 24.0 °F 17.9 °F 30.27 in West 2.0 mph 7.0 mph 77% 0.00 in 0.00 W/m2
19:10 24.0 °F 17.9 °F 30.28 in WSW 3.0 mph 8.0 mph 77% 0.00 in 0.00 W/m2
19:11 24.0 °F 17.9 °F 30.28 in WSW 5.0 mph 5.0 mph 77% 0.00 in 0.00 W/m2
19:12 24.0 °F 17.9 °F 30.28 in WSW 1.0 mph 5.0 mph 77% 0.00 in 0.00 W/m2
19:13 24.0 °F 17.9 °F 30.28 in WSW 2.0 mph 5.0 mph 77% 0.00 in 0.00 W/m2
19:16 24.1 °F 18.0 °F 30.28 in WSW 4.0 mph 4.0 mph 77% 0.00 in 0.00 W/m2
19:17 24.1 °F 18.0 °F 30.27 in West 4.0 mph 7.0 mph 77% 0.00 in 0.00 W/m2
19:18 24.1 °F 18.0 °F 30.27 in West 4.0 mph 7.0 mph 77% 0.00 in 0.00 W/m2
19:21 24.2 °F 18.0 °F 30.28 in West 5.0 mph 6.0 mph 77% 0.00 in 0.00 W/m2
19:22 24.2 °F 18.0 °F 30.27 in West 6.0 mph 7.0 mph 77% 0.00 in 0.00 W/m2
19:23 24.2 °F 18.0 °F 30.28 in WSW 4.0 mph 7.0 mph 77% 0.00 in 0.00 W/m2
19:27 24.2 °F 18.0 °F 30.27 in WSW 4.0 mph 8.0 mph 77% 0.00 in 0.00 W/m2
19:28 24.2 °F 18.0 °F 30.27 in WSW 5.0 mph 6.0 mph 77% 0.00 in 0.00 W/m2
19:30 24.1 °F 18.0 °F 30.27 in WSW 3.0 mph 6.0 mph 77% 0.00 in 0.00 W/m2
19:33 23.9 °F 17.8 °F 30.28 in WSW 4.0 mph 5.0 mph 77% 0.00 in 0.00 W/m2
19:36 23.6 °F 17.5 °F 30.28 in WSW 4.0 mph 5.0 mph 77% 0.00 in 0.00 W/m2
19:38 23.4 °F 17.3 °F 30.28 in WSW 2.0 mph 6.0 mph 77% 0.00 in 0.00 W/m2
19:39 23.3 °F 17.5 °F 30.28 in WSW 4.0 mph 5.0 mph 78% 0.00 in 0.00 W/m2
19:41 23.2 °F 17.4 °F 30.28 in WSW 2.0 mph 4.0 mph 78% 0.00 in 0.00 W/m2
19:43 23.2 °F 17.4 °F 30.28 in WSW 4.0 mph 4.0 mph 78% 0.00 in 0.00 W/m2
19:44 23.2 °F 17.4 °F 30.28 in WSW 3.0 mph 4.0 mph 78% 0.00 in 0.00 W/m2
19:48 23.2 °F 17.4 °F 30.28 in WSW 4.0 mph 5.0 mph 78% 0.00 in 0.00 W/m2
19:49 23.2 °F 17.4 °F 30.28 in WSW 4.0 mph 5.0 mph 78% 0.00 in 0.00 W/m2
19:50 23.1 °F 17.3 °F 30.28 in WSW 3.0 mph 5.0 mph 78% 0.00 in 0.00 W/m2
19:53 23.2 °F 17.7 °F 30.28 in West 3.0 mph 6.0 mph 79% 0.00 in 0.00 W/m2
19:54 23.2 °F 17.7 °F 30.28 in West 2.0 mph 5.0 mph 79% 0.00 in 0.00 W/m2
19:55 23.2 °F 17.7 °F 30.28 in West 6.0 mph 6.0 mph 79% 0.00 in 0.00 W/m2
19:56 23.2 °F 17.7 °F 30.29 in West 10.0 mph 10.0 mph 79% 0.00 in 0.00 W/m2
19:58 23.2 °F 17.7 °F 30.29 in West 3.0 mph 6.0 mph 79% 0.00 in 0.00 W/m2
19:59 23.2 °F 17.7 °F 30.29 in West 4.0 mph 6.0 mph 79% 0.00 in 0.00 W/m2
20:01 23.3 °F 17.8 °F 30.29 in West 3.0 mph 9.0 mph 79% 0.00 in 0.00 W/m2
20:03 23.3 °F 17.8 °F 30.29 in West 2.0 mph 6.0 mph 79% 0.00 in 0.00 W/m2
20:04 23.3 °F 17.8 °F 30.29 in West 4.0 mph 6.0 mph 79% 0.00 in 0.00 W/m2
20:05 23.3 °F 17.8 °F 30.29 in West 4.0 mph 6.0 mph 79% 0.00 in 0.00 W/m2
20:06 23.2 °F 17.4 °F 30.29 in West 3.0 mph 5.0 mph 78% 0.00 in 0.00 W/m2
20:07 23.2 °F 17.4 °F 30.29 in West 3.0 mph 5.0 mph 78% 0.00 in 0.00 W/m2
20:08 23.1 °F 17.3 °F 30.29 in West 3.0 mph 6.0 mph 78% 0.00 in 0.00 W/m2
20:09 23.1 °F 17.3 °F 30.29 in West 4.0 mph 6.0 mph 78% 0.00 in 0.00 W/m2
20:10 23.1 °F 17.3 °F 30.29 in West 5.0 mph 6.0 mph 78% 0.00 in 0.00 W/m2
20:12 22.9 °F 17.1 °F 30.29 in West 5.0 mph 6.0 mph 78% 0.00 in 0.00 W/m2
20:13 22.8 °F 17.3 °F 30.29 in West 3.0 mph 5.0 mph 79% 0.00 in 0.00 W/m2
20:15 22.7 °F 16.9 °F 30.29 in West 1.0 mph 5.0 mph 78% 0.00 in 0.00 W/m2
20:17 22.7 °F 17.2 °F 30.29 in West 2.0 mph 4.0 mph 79% 0.00 in 0.00 W/m2
20:18 22.6 °F 17.1 °F 30.30 in West 3.0 mph 5.0 mph 79% 0.00 in 0.00 W/m2
20:20 22.5 °F 17.0 °F 30.29 in West 4.0 mph 5.0 mph 79% 0.00 in 0.00 W/m2
20:23 22.5 °F 17.0 °F 30.29 in Calm   4.0 mph 79% 0.00 in 0.00 W/m2
20:24 22.5 °F 17.0 °F 30.29 in West 2.0 mph 5.0 mph 79% 0.00 in 0.00 W/m2
20:25 22.4 °F 16.9 °F 30.29 in West 4.0 mph 4.0 mph 79% 0.00 in 0.00 W/m2
20:29 22.4 °F 16.9 °F 30.29 in West 4.0 mph 6.0 mph 79% 0.00 in 0.00 W/m2
20:30 22.4 °F 17.2 °F 30.29 in West 2.0 mph 6.0 mph 80% 0.00 in 0.00 W/m2
20:31 22.4 °F 17.2 °F 30.29 in West 4.0 mph 4.0 mph 80% 0.00 in 0.00 W/m2
20:34 22.4 °F 17.2 °F 30.29 in West 4.0 mph 5.0 mph 80% 0.00 in 0.00 W/m2
20:35 22.4 °F 17.2 °F 30.29 in West 3.0 mph 4.0 mph 80% 0.00 in 0.00 W/m2
20:37 22.4 °F 17.2 °F 30.29 in West 4.0 mph 5.0 mph 80% 0.00 in 0.00 W/m2
20:39 22.3 °F 17.1 °F 30.29 in Calm   4.0 mph 80% 0.00 in 0.00 W/m2
20:40 22.3 °F 17.1 °F 30.29 in West 1.0 mph 3.0 mph 80% 0.00 in 0.00 W/m2
20:42 22.3 °F 17.1 °F 30.29 in West 2.0 mph 4.0 mph 80% 0.00 in 0.00 W/m2
20:43 22.3 °F 17.1 °F 30.29 in West 1.0 mph 4.0 mph 80% 0.00 in 0.00 W/m2
20:44 22.3 °F 17.1 °F 30.29 in West 1.0 mph 2.0 mph 80% 0.00 in 0.00 W/m2
20:46 22.3 °F 17.1 °F 30.28 in Calm   2.0 mph 80% 0.00 in 0.00 W/m2
20:48 22.3 °F 17.1 °F 30.28 in Calm     80% 0.00 in 0.00 W/m2
20:49 22.3 °F 17.1 °F 30.28 in Calm     80% 0.00 in 0.00 W/m2
20:52 22.3 °F 17.1 °F 30.28 in Calm   3.0 mph 80% 0.00 in 0.00 W/m2
20:54 22.3 °F 17.1 °F 30.28 in West 2.0 mph 3.0 mph 80% 0.00 in 0.00 W/m2
20:55 22.2 °F 17.0 °F 30.28 in West 3.0 mph 3.0 mph 80% 0.00 in 0.00 W/m2
20:57 22.2 °F 17.0 °F 30.28 in Calm   1.0 mph 80% 0.00 in 0.00 W/m2
20:59 22.2 °F 17.0 °F 30.28 in West 1.0 mph 1.0 mph 80% 0.00 in 0.00 W/m2
21:00 22.2 °F 17.0 °F 30.28 in West 1.0 mph 2.0 mph 80% 0.00 in 0.00 W/m2
21:03 22.2 °F 17.0 °F 30.28 in West 1.0 mph 3.0 mph 80% 0.00 in 0.00 W/m2
21:05 22.2 °F 17.0 °F 30.28 in Calm   3.0 mph 80% 0.00 in 0.00 W/m2
21:09 22.1 °F 16.9 °F 30.28 in West 2.0 mph 3.0 mph 80% 0.00 in 0.00 W/m2
21:10 22.0 °F 16.8 °F 30.28 in West 2.0 mph 3.0 mph 80% 0.00 in 0.00 W/m2
21:14 21.9 °F 16.7 °F 30.28 in West 3.0 mph 4.0 mph 80% 0.00 in 0.00 W/m2
21:15 21.9 °F 16.7 °F 30.28 in West 3.0 mph 3.0 mph 80% 0.00 in 0.00 W/m2
21:16 21.9 °F 16.7 °F 30.28 in West 3.0 mph 4.0 mph 80% 0.00 in 0.00 W/m2
21:19 21.8 °F 16.6 °F 30.28 in West 2.0 mph 4.0 mph 80% 0.00 in 0.00 W/m2
21:20 21.8 °F 16.6 °F 30.28 in West 3.0 mph 4.0 mph 80% 0.00 in 0.00 W/m2
21:21 21.8 °F 16.6 °F 30.28 in West 3.0 mph 4.0 mph 80% 0.00 in 0.00 W/m2
21:25 21.7 °F 16.5 °F 30.28 in West 3.0 mph 4.0 mph 80% 0.00 in 0.00 W/m2
21:26 21.7 °F 16.5 °F 30.28 in West 4.0 mph 4.0 mph 80% 0.00 in 0.00 W/m2
21:27 21.7 °F 16.5 °F 30.28 in West 2.0 mph 5.0 mph 80% 0.00 in 0.00 W/m2
21:30 21.6 °F 16.7 °F 30.28 in West 2.0 mph 6.0 mph 81% 0.00 in 0.00 W/m2
21:31 21.6 °F 16.7 °F 30.28 in West 3.0 mph 6.0 mph 81% 0.00 in 0.00 W/m2
21:32 21.6 °F 16.7 °F 30.28 in West 3.0 mph 4.0 mph 81% 0.00 in 0.00 W/m2
21:35 21.5 °F 16.6 °F 30.28 in West 2.0 mph 4.0 mph 81% 0.00 in 0.00 W/m2
21:36 21.5 °F 16.3 °F 30.28 in West 1.0 mph 4.0 mph 80% 0.00 in 0.00 W/m2
21:38 21.5 °F 16.3 °F 30.28 in West 2.0 mph 4.0 mph 80% 0.00 in 0.00 W/m2
21:40 21.4 °F 16.2 °F 30.28 in West 3.0 mph 3.0 mph 80% 0.00 in 0.00 W/m2
21:41 21.4 °F 16.2 °F 30.28 in West 1.0 mph 3.0 mph 80% 0.00 in 0.00 W/m2
21:43 21.4 °F 16.5 °F 30.28 in Calm   2.0 mph 81% 0.00 in 0.00 W/m2
21:44 21.4 °F 16.5 °F 30.28 in West 1.0 mph 2.0 mph 81% 0.00 in 0.00 W/m2
21:45 21.4 °F 16.5 °F 30.28 in West 2.0 mph 3.0 mph 81% 0.00 in 0.00 W/m2
21:46 21.4 °F 16.5 °F 30.28 in West 2.0 mph 3.0 mph 81% 0.00 in 0.00 W/m2
21:48 21.4 °F 16.5 °F 30.27 in West 2.0 mph 3.0 mph 81% 0.00 in 0.00 W/m2
21:50 21.4 °F 16.5 °F 30.28 in West 1.0 mph 2.0 mph 81% 0.00 in 0.00 W/m2
21:51 21.4 °F 16.5 °F 30.27 in Calm   1.0 mph 81% 0.00 in 0.00 W/m2
21:53 21.4 °F 16.5 °F 30.27 in West 2.0 mph 3.0 mph 81% 0.00 in 0.00 W/m2
21:55 21.4 °F 16.5 °F 30.27 in Calm   3.0 mph 81% 0.00 in 0.00 W/m2
21:56 21.4 °F 16.5 °F 30.27 in West 1.0 mph 2.0 mph 81% 0.00 in 0.00 W/m2
21:57 21.4 °F 16.5 °F 30.27 in West 2.0 mph 3.0 mph 81% 0.00 in 0.00 W/m2
21:59 21.4 °F 16.2 °F 30.27 in Calm   3.0 mph 80% 0.00 in 0.00 W/m2
22:00 21.4 °F 16.2 °F 30.27 in West 3.0 mph 3.0 mph 80% 0.00 in 0.00 W/m2
22:01 21.4 °F 16.2 °F 30.27 in West 1.0 mph 3.0 mph 80% 0.00 in 0.00 W/m2
22:02 21.3 °F 16.1 °F 30.27 in Calm   2.0 mph 80% 0.00 in 0.00 W/m2
22:04 21.3 °F 16.1 °F 30.27 in Calm   1.0 mph 80% 0.00 in 0.00 W/m2
22:06 21.3 °F 16.1 °F 30.27 in West 1.0 mph 2.0 mph 80% 0.00 in 0.00 W/m2
22:07 21.3 °F 16.1 °F 30.27 in Calm   2.0 mph 80% 0.00 in 0.00 W/m2
22:10 21.3 °F 16.1 °F 30.27 in Calm   2.0 mph 80% 0.00 in 0.00 W/m2
22:11 21.3 °F 16.1 °F 30.27 in Calm     80% 0.00 in 0.00 W/m2
22:12 21.3 °F 16.1 °F 30.27 in Calm     80% 0.00 in 0.00 W/m2
22:15 21.2 °F 16.0 °F 30.27 in Calm   1.0 mph 80% 0.00 in 0.00 W/m2
22:16 21.2 °F 16.0 °F 30.27 in Calm   1.0 mph 80% 0.00 in 0.00 W/m2
22:17 21.2 °F 16.0 °F 30.27 in West 1.0 mph 1.0 mph 80% 0.00 in 0.00 W/m2
22:18 21.2 °F 16.0 °F 30.27 in Calm   2.0 mph 80% 0.00 in 0.00 W/m2
22:20 21.2 °F 16.0 °F 30.27 in Calm     80% 0.00 in 0.00 W/m2
22:21 21.2 °F 16.0 °F 30.27 in Calm     80% 0.00 in 0.00 W/m2
22:23 21.1 °F 15.9 °F 30.27 in Calm     80% 0.00 in 0.00 W/m2
22:24 21.1 °F 15.9 °F 30.27 in Calm     80% 0.00 in 0.00 W/m2
22:25 21.1 °F 15.9 °F 30.27 in Calm     80% 0.00 in 0.00 W/m2
22:27 21.0 °F 15.8 °F 30.27 in Calm     80% 0.00 in 0.00 W/m2
22:28 21.0 °F 15.8 °F 30.27 in Calm     80% 0.00 in 0.00 W/m2
22:31 20.9 °F 15.7 °F 30.27 in Calm     80% 0.00 in 0.00 W/m2
22:33 20.8 °F 15.6 °F 30.27 in Calm     80% 0.00 in 0.00 W/m2
22:36 20.7 °F 15.5 °F 30.27 in Calm   1.0 mph 80% 0.00 in 0.00 W/m2
22:37 20.7 °F 15.5 °F 30.27 in Calm   1.0 mph 80% 0.00 in 0.00 W/m2
22:38 20.6 °F 15.4 °F 30.27 in West 1.0 mph 1.0 mph 80% 0.00 in 0.00 W/m2
22:41 20.5 °F 15.3 °F 30.27 in West 2.0 mph 3.0 mph 80% 0.00 in 0.00 W/m2
22:42 20.5 °F 15.3 °F 30.27 in West 2.0 mph 3.0 mph 80% 0.00 in 0.00 W/m2
22:43 20.4 °F 15.2 °F 30.27 in Calm   2.0 mph 80% 0.00 in 0.00 W/m2
22:44 20.4 °F 15.2 °F 30.27 in Calm   1.0 mph 80% 0.00 in 0.00 W/m2
22:47 20.3 °F 15.1 °F 30.27 in Calm     80% 0.00 in 0.00 W/m2
22:49 20.2 °F 15.0 °F 30.27 in Calm   1.0 mph 80% 0.00 in 0.00 W/m2
22:50 20.2 °F 15.0 °F 30.27 in West 2.0 mph 2.0 mph 80% 0.00 in 0.00 W/m2
22:52 20.1 °F 14.9 °F 30.28 in West 1.0 mph 4.0 mph 80% 0.00 in 0.00 W/m2
22:53 20.1 °F 14.9 °F 30.27 in West 2.0 mph 3.0 mph 80% 0.00 in 0.00 W/m2
22:54 20.0 °F 14.8 °F 30.27 in West 2.0 mph 3.0 mph 80% 0.00 in 0.00 W/m2
22:55 20.0 °F 14.8 °F 30.27 in West 2.0 mph 3.0 mph 80% 0.00 in 0.00 W/m2
22:57 19.9 °F 14.7 °F 30.28 in West 2.0 mph 2.0 mph 80% 0.00 in 0.00 W/m2
22:58 19.9 °F 14.7 °F 30.28 in West 2.0 mph 3.0 mph 80% 0.00 in 0.00 W/m2
22:59 19.8 °F 14.6 °F 30.28 in West 1.0 mph 3.0 mph 80% 0.00 in 0.00 W/m2
23:00 19.8 °F 14.6 °F 30.28 in Calm   2.0 mph 80% 0.00 in 0.00 W/m2
23:01 19.8 °F 14.6 °F 30.28 in Calm   1.0 mph 80% 0.00 in 0.00 W/m2
23:05 19.7 °F 14.8 °F 30.28 in Calm     81% 0.00 in 0.00 W/m2
23:07 19.6 °F 14.7 °F 30.28 in Calm     81% 0.00 in 0.00 W/m2
23:09 19.6 °F 14.7 °F 30.28 in Calm   2.0 mph 81% 0.00 in 0.00 W/m2
23:10 19.6 °F 14.7 °F 30.28 in West 1.0 mph 2.0 mph 81% 0.00 in 0.00 W/m2
23:11 19.6 °F 14.7 °F 30.28 in Calm   1.0 mph 81% 0.00 in 0.00 W/m2
23:12 19.5 °F 14.6 °F 30.28 in Calm   1.0 mph 81% 0.00 in 0.00 W/m2
23:13 19.5 °F 14.6 °F 30.28 in Calm   1.0 mph 81% 0.00 in 0.00 W/m2
23:14 19.5 °F 14.6 °F 30.27 in Calm   2.0 mph 81% 0.00 in 0.00 W/m2
23:15 19.5 °F 14.6 °F 30.28 in Calm   2.0 mph 81% 0.00 in 0.00 W/m2
23:16 19.4 °F 14.5 °F 30.28 in West 2.0 mph 3.0 mph 81% 0.00 in 0.00 W/m2
23:19 19.4 °F 14.5 °F 30.28 in Calm   1.0 mph 81% 0.00 in 0.00 W/m2
23:20 19.3 °F 14.4 °F 30.28 in Calm   1.0 mph 81% 0.00 in 0.00 W/m2
23:21 19.3 °F 14.4 °F 30.28 in Calm   2.0 mph 81% 0.00 in 0.00 W/m2
23:25 19.3 °F 14.7 °F 30.27 in West 1.0 mph 2.0 mph 82% 0.00 in 0.00 W/m2
23:26 19.2 °F 14.6 °F 30.27 in Calm   2.0 mph 82% 0.00 in 0.00 W/m2
23:27 19.2 °F 14.6 °F 30.27 in Calm     82% 0.00 in 0.00 W/m2
23:30 19.2 °F 14.6 °F 30.27 in Calm     82% 0.00 in 0.00 W/m2
23:31 19.2 °F 14.6 °F 30.27 in Calm     82% 0.00 in 0.00 W/m2
23:32 19.2 °F 14.6 °F 30.27 in Calm     82% 0.00 in 0.00 W/m2
23:35 19.3 °F 15.0 °F 30.27 in Calm     83% 0.00 in 0.00 W/m2
23:36 19.2 °F 14.9 °F 30.27 in Calm     83% 0.00 in 0.00 W/m2
23:38 19.3 °F 15.0 °F 30.27 in Calm     83% 0.00 in 0.00 W/m2
23:39 19.3 °F 15.0 °F 30.27 in Calm     83% 0.00 in 0.00 W/m2
23:40 19.3 °F 15.0 °F 30.28 in Calm     83% 0.00 in 0.00 W/m2
23:41 19.3 °F 15.0 °F 30.28 in Calm     83% 0.00 in 0.00 W/m2
23:43 19.3 °F 15.0 °F 30.28 in Calm     83% 0.00 in 0.00 W/m2
23:44 19.3 °F 15.0 °F 30.27 in Calm   1.0 mph 83% 0.00 in 0.00 W/m2
23:46 19.3 °F 15.0 °F 30.27 in Calm     83% 0.00 in 0.00 W/m2
23:48 19.5 °F 15.5 °F 30.27 in Calm   1.0 mph 84% 0.00 in 0.00 W/m2
23:49 19.5 °F 15.5 °F 30.27 in Calm   1.0 mph 84% 0.00 in 0.00 W/m2
23:52 19.6 °F 17.7 °F 30.27 in West 1.0 mph 2.0 mph 92% 0.00 in 0.00 W/m2
23:53 19.7 °F 15.7 °F 30.27 in Calm   2.0 mph 84% 0.00 in 0.00 W/m2
23:54 19.7 °F 15.7 °F 30.27 in Calm   2.0 mph 84% 0.00 in 0.00 W/m2
23:55 19.8 °F 15.8 °F 30.27 in Calm   1.0 mph 84% 0.00 in 0.00 W/m2
23:57 19.9 °F 15.9 °F 30.27 in Calm     84% 0.00 in 0.00 W/m2
23:58 20.0 °F 15.9 °F 30.27 in West 1.0 mph 2.0 mph 84% 0.00 in 0.00 W/m2
23:59 20.0 °F 15.9 °F 30.27 in West 1.0 mph 2.0 mph 84% 0.00 in 0.00 W/m2
Peotone Weather Data
Compliments of Weather Underground